GFSSW_500_spd_036.txt.gz
Wind_Speed
43 43 34 31 26 23 21 23 23 22 20 22 22 16 16 16 14 13 18 15 15 17 23 24 18 17 11 11 16 26 26 25 23 19 19 24 25 23 24 7 13 12 16 16 15
39 41 34 30 25 24 23 23 23 21 21 21 13 12 13 12 13 15 16 17 15 15 16 21 15 21 20 22 18 28 31 27 23 28 22 16 15 8 12 11 9 12 14 10 5
40 42 33 30 24 23 25 24 23 22 20 12 10 12 12 12 15 15 16 14 13 13 12 16 14 21 27 22 20 29 26 21 16 11 13 11 7 14 14 7 5 8 8 7 8
41 39 33 27 20 24 23 22 20 21 19 16 11 11 15 14 16 15 15 14 14 13 15 17 22 27 25 29 25 28 25 18 18 16 14 4 12 10 3 1 2 6 9 8 8
42 39 31 22 21 22 21 20 20 22 21 16 12 11 12 16 16 15 14 13 13 16 21 25 27 27 27 26 26 26 9 5 5 2 1 8 4 3 3 5 6 7 7 7 6
42 37 27 22 20 21 21 18 17 20 22 17 12 9 16 17 15 15 13 14 12 15 24 28 28 29 29 28 28 16 10 6 5 2 2 4 6 5 6 8 9 7 7 6 5
40 32 22 20 20 21 20 20 19 16 18 18 14 9 13 13 14 12 12 15 16 29 30 32 27 24 25 12 11 8 9 12 7 7 10 9 8 9 10 12 12 11 10 9 7
37 26 20 21 20 22 20 23 21 17 17 18 18 14 13 13 13 14 17 20 23 37 28 26 22 19 9 10 10 5 7 7 4 8 11 13 13 13 12 12 14 13 12 12 9
33 23 20 20 19 20 20 19 20 18 18 18 17 17 13 15 15 16 22 25 31 35 24 24 21 16 13 8 9 7 11 6 8 13 14 14 13 13 11 13 9 9 11 8 7
27 19 16 20 19 17 17 16 19 19 20 15 15 18 16 18 18 21 25 31 35 31 23 21 21 20 17 9 8 9 14 14 15 16 17 15 15 13 11 8 9 9 9 9 8
22 18 18 17 15 14 12 13 15 17 14 12 12 15 16 18 20 28 31 34 34 29 24 19 19 17 13 12 10 15 18 16 17 15 14 12 11 9 8 7 7 7 10 12 12
21 18 20 15 14 11 12 13 14 14 15 13 16 16 16 17 24 30 34 35 33 30 21 16 19 18 18 19 18 20 23 20 14 10 10 7 9 5 7 7 8 9 11 13 14
20 20 21 17 13 7 5 11 15 14 15 16 17 16 16 16 18 25 32 31 28 31 29 23 26 28 28 24 23 22 23 22 18 13 11 10 10 11 12 12 12 15 15 16 17
21 21 16 17 14 10 13 12 14 13 16 19 20 19 17 18 20 22 27 28 25 31 29 24 28 28 23 17 11 17 18 18 13 12 14 15 19 16 15 18 19 20 21 20 23
23 21 15 17 16 15 14 17 15 17 19 19 20 21 20 20 24 26 27 29 28 25 22 21 20 20 19 17 14 13 13 12 13 14 16 18 20 18 21 22 24 25 26 26 26
26 23 15 20 20 13 19 18 21 20 20 22 24 24 23 23 23 25 24 24 21 21 19 18 17 15 15 15 14 14 14 14 15 17 20 21 24 21 20 21 23 24 25 27 27
29 21 16 20 25 17 23 26 26 24 22 22 22 23 23 22 22 22 21 19 18 17 15 15 17 14 16 15 15 14 15 16 17 17 16 16 17 15 15 17 18 21 22 25 27
30 21 17 23 25 26 30 30 28 25 25 25 23 22 22 22 20 19 17 16 15 16 16 16 16 16 16 15 15 15 14 12 11 11 11 11 9 10 11 14 15 18 20 21 23
31 28 23 28 31 35 33 31 29 26 26 24 23 21 19 19 16 15 14 15 16 16 17 16 17 15 14 13 12 11 9 7 6 6 6 7 7 7 8 8 8 10 12 14 16
33 33 30 33 39 38 35 32 29 26 26 24 21 18 16 15 14 13 14 14 15 16 15 15 16 15 15 13 12 10 8 5 4 3 3 7 10 10 11 14 16 17 18 19 21
37 39 35 41 43 39 35 30 30 27 26 24 20 18 15 14 14 14 14 14 15 15 15 16 14 14 15 13 12 11 8 6 5 6 10 12 11 11 13 15 16 18 21 23 24
42 40 41 48 45 40 35 32 30 28 26 22 19 15 14 15 15 15 15 16 16 16 16 17 17 17 16 15 14 12 10 8 10 13 14 15 13 15 16 18 20 22 25 26 27
44 42 48 50 46 41 36 33 30 26 23 21 17 13 13 13 12 15 17 18 18 18 18 18 19 18 17 16 14 12 11 12 15 16 17 18 19 21 21 22 24 26 29 30 32
46 47 52 50 45 42 36 33 28 25 23 18 12 10 10 10 13 16 17 18 19 20 20 21 19 18 18 18 16 14 14 15 17 19 19 22 22 24 23 24 25 28 32 33 35
49 52 53 50 47 42 38 35 28 25 22 15 12 10 9 13 14 15 16 16 18 19 20 20 20 21 20 19 18 18 18 18 20 22 24 25 26 30 28 28 29 32 35 36 38
51 54 54 49 46 41 38 36 31 25 19 15 13 9 8 12 14 16 16 16 18 19 21 21 22 23 23 22 23 22 20 22 24 26 27 30 28 32 32 33 33 35 38 40 41
53 56 54 49 46 43 37 34 29 24 21 17 13 10 10 13 14 15 16 17 18 20 21 22 23 26 26 26 28 25 22 28 29 30 32 33 34 35 35 36 36 38 41 43 44

GFSSW_500_spd_039.txt.gz
Wind_Speed
42 40 41 41 44 37 32 27 21 20 21 21 19 21 19 16 14 15 17 13 14 14 21 26 26 21 14 14 13 19 20 25 23 19 19 25 20 19 30 21 5 5 7 6 7
42 42 43 41 43 38 30 24 20 19 21 21 19 18 12 14 13 15 11 16 15 14 14 23 24 16 15 14 11 18 23 24 29 23 26 8 11 18 18 12 3 4 5 1 1
42 41 44 43 41 36 27 22 20 19 21 19 17 12 11 12 13 13 12 12 14 13 14 19 18 17 20 19 15 18 23 19 19 13 8 1 11 10 10 9 5 2 5 5 3
42 42 43 42 41 33 23 22 18 19 17 17 17 13 11 14 13 13 13 12 11 13 14 16 19 18 24 21 14 17 19 25 26 21 12 13 9 8 10 8 5 4 6 6 5
41 41 42 40 38 27 21 21 19 17 17 18 17 15 12 13 12 13 12 9 11 11 10 15 17 25 23 22 18 15 16 15 14 13 19 11 8 6 6 4 3 3 3 3 3
40 39 41 40 32 23 21 20 17 17 17 19 18 14 13 11 11 11 11 9 9 8 19 23 26 26 21 19 16 15 15 1 8 10 8 6 4 3 2 2 2 2 2 4 4
39 38 37 37 26 21 22 19 18 21 18 17 17 16 11 14 12 11 9 10 8 19 28 26 25 25 22 15 14 13 13 11 8 6 6 4 4 9 7 5 5 6 5 5 5
37 35 36 31 22 23 21 20 18 21 19 16 17 17 13 9 11 11 11 10 19 26 28 23 25 20 14 13 7 6 7 9 6 8 8 8 11 10 8 7 4 7 9 10 8
35 33 33 25 20 21 18 19 20 21 18 15 18 17 13 11 13 12 12 16 26 24 27 26 20 17 14 13 10 8 8 5 8 11 10 10 10 9 8 10 8 7 10 11 10
32 33 29 21 20 20 17 15 18 16 18 16 17 16 15 14 16 12 13 21 27 24 21 19 17 17 13 9 7 10 7 8 13 13 13 12 11 10 11 9 10 11 10 9 10
29 32 27 20 18 17 15 16 15 14 17 16 15 16 15 16 17 16 18 26 29 24 19 21 21 19 14 10 7 13 16 13 16 14 12 10 10 11 13 12 10 7 8 8 10
28 30 25 20 17 14 14 13 12 10 14 15 14 13 15 17 16 19 23 25 29 23 19 18 17 16 17 9 12 14 19 15 12 8 9 12 11 10 8 7 7 6 6 9 11
27 28 24 18 16 12 10 9 12 13 15 15 15 15 16 17 20 26 28 29 29 25 18 16 11 11 12 14 15 15 19 18 15 13 13 13 10 9 8 7 8 9 11 14 16
27 27 21 18 16 13 11 11 12 12 14 15 16 16 16 16 17 22 26 29 29 27 20 19 14 17 18 18 19 15 17 19 20 20 16 15 14 10 8 9 10 13 16 19 20
28 27 21 17 12 16 17 13 11 13 15 18 18 19 18 17 18 22 25 30 29 28 26 23 23 23 23 22 18 12 16 16 17 19 19 14 15 10 13 14 17 17 18 19 21
30 26 22 17 15 19 19 11 18 16 17 17 20 19 18 18 19 21 24 26 29 30 25 25 20 19 20 19 17 14 13 14 14 15 16 14 16 9 12 13 13 14 16 17 18
33 27 24 20 18 23 20 20 20 17 17 20 20 21 21 19 20 21 23 23 23 22 20 19 18 16 17 17 16 16 15 16 17 17 14 11 11 8 9 10 10 11 14 15 17
36 31 26 24 22 25 23 24 22 22 21 21 22 22 21 20 20 20 20 18 18 17 16 16 18 17 15 14 17 16 17 17 15 10 7 5 4 5 6 6 6 7 9 11 14
39 35 31 27 26 30 26 27 26 27 26 24 23 21 21 21 20 18 18 17 17 17 19 19 18 16 16 16 17 17 16 11 9 5 2 1 0 1 1 4 5 7 9 10 12
43 38 32 29 30 33 30 31 31 29 27 25 22 20 18 17 17 16 17 18 17 18 18 17 17 17 17 18 17 15 12 9 7 4 3 2 4 5 6 7 7 9 11 13 15
48 45 40 34 36 37 36 35 34 30 27 24 21 19 17 17 16 15 15 14 16 18 18 17 18 17 18 17 15 13 11 10 8 6 6 6 5 7 9 10 12 13 15 17 19
50 48 43 37 40 42 40 39 35 29 27 25 24 21 19 16 15 15 14 16 17 18 18 17 17 15 15 16 16 15 14 12 12 11 11 12 10 13 15 16 18 18 19 21 24
50 47 45 40 42 46 43 39 34 30 28 25 21 17 15 16 16 18 18 18 18 17 16 17 16 16 16 16 16 16 16 16 16 15 13 15 18 18 20 21 22 23 24 27 29
50 47 47 42 46 46 43 39 33 29 27 23 19 17 15 14 16 17 18 18 16 17 17 17 17 17 17 18 20 19 19 17 17 17 18 16 20 24 25 26 27 29 30 32 34
51 49 46 44 52 49 44 38 33 29 27 21 19 14 11 11 11 12 14 16 16 18 18 19 18 19 20 21 22 20 19 19 19 21 23 22 24 29 31 31 32 33 35 36 37
49 49 45 46 51 50 46 40 33 29 27 23 17 12 7 9 14 14 15 14 14 15 16 18 19 22 22 23 24 23 22 21 23 26 28 30 27 35 35 36 37 38 39 40 41
45 48 45 51 53 51 44 38 34 29 27 21 15 9 8 10 13 14 14 14 12 13 15 17 20 22 24 26 28 27 23 27 29 30 33 34 35 38 39 40 40 41 42 44 44

GFSSW_500_spd_042.txt.gz
Wind_Speed
36 38 40 38 38 40 40 46 38 28 21 20 19 17 18 19 21 19 17 11 11 14 15 18 26 28 22 18 16 17 16 13 20 18 16 21 27 28 24 26 21 8 8 4 4
36 36 37 42 39 40 40 44 33 25 19 20 20 18 17 17 17 15 14 13 12 13 14 13 21 26 20 18 15 14 14 13 17 20 22 20 22 22 22 23 24 5 9 10 6
34 35 39 38 38 39 39 43 26 21 18 20 19 16 14 14 15 13 13 11 10 14 11 12 18 20 18 16 16 13 15 19 19 23 15 12 13 9 8 10 8 8 14 12 5
32 34 37 38 37 38 39 37 25 19 20 19 15 15 14 13 15 12 11 8 8 10 12 14 18 19 19 19 17 18 18 17 17 14 14 16 16 10 8 12 13 12 11 10 8
29 31 35 35 37 36 39 33 22 23 19 17 16 17 15 14 15 11 10 9 10 11 13 11 18 15 17 20 15 12 18 16 14 18 17 17 14 8 9 11 12 9 6 7 6
30 32 32 34 35 34 38 25 23 20 20 18 15 18 15 15 12 8 9 11 11 9 11 15 20 22 22 19 18 18 11 10 17 19 18 18 11 10 11 9 7 4 4 4 5
30 31 29 32 32 34 33 22 23 21 22 21 16 14 17 14 11 9 11 11 8 12 18 24 23 24 23 18 13 11 5 5 11 15 11 11 8 6 5 6 3 0 1 3 4
28 27 29 32 31 35 27 21 21 19 20 19 15 14 16 11 12 10 10 7 12 21 26 23 23 20 15 12 10 11 9 7 10 6 6 7 10 7 5 5 3 1 3 4 5
24 23 27 29 31 31 21 21 20 18 17 16 15 14 13 11 10 11 9 10 18 28 26 22 21 19 23 13 8 3 8 7 7 10 11 10 12 9 6 4 3 4 5 7 9
22 23 26 26 30 24 19 20 16 17 15 12 14 14 12 12 11 11 10 15 19 26 28 19 16 16 14 13 7 7 12 10 12 13 11 12 11 9 8 7 4 5 7 10 12
23 22 25 26 27 18 19 17 17 14 12 15 14 13 13 14 13 14 14 20 22 18 13 21 20 15 15 11 10 13 12 10 12 10 8 9 9 8 8 7 8 7 8 10 12
25 24 23 26 23 16 18 17 14 13 11 13 12 11 15 17 15 17 17 22 20 22 22 15 17 17 18 12 9 7 16 14 13 7 4 7 10 10 9 8 8 11 12 13 13
29 24 25 24 19 16 19 15 12 11 10 11 13 14 15 15 17 21 21 22 16 20 19 19 18 18 16 15 9 11 16 16 12 8 7 7 7 9 9 10 12 11 13 14 13
31 28 26 24 18 16 17 13 8 10 12 15 14 15 17 17 19 23 26 28 24 22 22 19 13 12 11 11 13 11 11 15 13 11 10 9 8 14 14 13 13 14 15 17 18
34 31 25 24 17 16 18 13 9 10 14 16 17 17 16 19 19 23 24 28 24 25 16 15 15 10 11 14 14 14 11 13 13 14 15 19 20 21 15 16 17 18 19 20 19
40 36 30 23 20 18 18 14 14 14 16 14 14 16 17 18 19 21 24 24 27 26 23 22 17 17 17 18 17 15 11 11 15 15 17 19 18 14 12 17 18 17 17 17 16
43 39 33 26 25 21 20 19 19 16 15 14 14 17 18 18 19 21 23 25 25 26 26 24 23 20 16 15 16 16 16 14 15 17 16 15 15 10 12 13 14 14 14 13 13
47 43 38 31 29 26 23 24 22 17 17 15 18 21 20 20 18 19 23 23 24 23 20 19 19 17 15 17 18 18 15 16 17 17 17 13 8 11 11 9 7 6 4 4 5
54 52 42 37 32 30 25 27 19 23 19 18 22 23 22 21 19 19 19 18 17 16 19 17 19 19 20 19 18 16 17 17 18 13 11 8 7 5 5 6 6 5 4 5 8
59 55 45 42 36 33 27 24 24 26 23 22 22 23 22 20 18 18 17 16 16 17 18 19 20 20 20 21 20 19 17 15 12 11 8 8 8 9 8 8 7 8 10 12 14
63 57 51 47 42 38 30 28 28 29 28 27 25 21 18 17 16 16 16 15 17 18 19 20 20 20 21 21 20 19 15 13 13 11 10 8 9 10 9 10 12 14 16 18 19
66 60 56 54 48 38 36 34 33 35 33 29 25 24 21 18 17 16 15 18 20 21 22 21 21 21 21 20 21 19 16 16 15 14 13 12 12 14 14 15 16 18 20 23 25
64 61 58 55 45 40 40 38 39 40 36 31 27 25 21 20 19 18 18 18 20 21 22 21 21 19 19 17 15 15 17 18 17 17 15 17 15 19 18 19 21 23 26 28 30
59 59 57 53 46 39 41 43 43 40 36 32 28 24 21 20 19 20 20 21 21 20 20 20 19 17 16 17 17 17 20 21 21 19 20 18 21 22 25 25 26 29 31 33 35
60 59 57 55 49 43 42 45 45 40 36 31 28 24 20 18 17 19 19 19 19 19 19 19 18 18 17 18 19 19 21 22 22 22 23 22 23 26 33 32 32 34 37 38 41
58 58 59 50 46 45 48 49 45 39 33 30 25 22 18 15 15 16 16 15 14 15 17 18 18 20 20 19 20 22 23 24 24 25 26 29 27 32 37 38 39 40 42 44 45
55 57 57 49 49 49 52 49 45 38 34 31 26 22 16 12 12 14 14 14 14 14 15 15 16 19 19 21 24 23 21 26 28 29 32 35 35 38 41 44 45 46 47 47 47

GFSSW_500_spd_045.txt.gz
Wind_Speed
37 35 32 29 31 34 36 37 39 40 40 31 24 22 22 21 21 18 18 14 13 13 15 15 16 23 29 22 19 13 13 11 19 20 35 21 29 30 27 30 17 25 24 17 19
35 33 32 30 30 34 34 36 38 41 37 29 23 22 22 20 18 16 15 14 13 13 12 11 11 17 24 18 18 14 8 11 26 23 16 20 19 29 25 19 24 20 12 9 9
35 32 29 28 28 33 33 35 35 41 32 27 26 24 19 17 17 14 14 13 13 12 10 12 12 15 16 17 17 15 11 16 21 18 13 21 21 20 9 14 10 19 13 16 13
34 31 28 25 29 33 32 34 35 38 28 27 23 18 17 17 18 12 13 11 9 7 13 12 13 14 16 18 16 15 20 19 18 24 19 9 10 9 7 8 7 8 15 14 12
33 30 28 27 29 28 32 32 35 32 28 25 21 19 19 19 18 14 13 10 11 12 13 13 15 16 18 15 15 18 17 21 23 15 16 6 14 24 13 11 12 10 6 7 8
32 30 28 25 28 28 29 31 35 28 27 23 23 20 18 18 15 13 8 12 14 12 12 14 16 18 17 18 16 17 21 20 19 17 18 21 4 10 11 10 9 6 4 5 4
31 28 25 25 26 27 29 29 31 26 24 21 21 20 20 16 13 10 11 13 11 10 11 11 13 15 14 18 19 21 16 13 21 25 18 19 12 10 8 8 8 6 4 4 3
30 25 23 22 25 26 27 29 27 25 22 20 18 18 16 11 12 13 12 10 8 8 10 22 22 22 21 19 23 21 8 9 11 12 14 17 5 8 5 1 2 3 3 3 3
28 23 20 22 23 25 25 28 24 23 20 19 17 16 11 10 11 10 11 8 10 16 25 25 25 26 21 9 6 5 3 5 11 9 10 10 15 9 6 3 1 2 3 4 5
26 22 20 21 23 23 24 26 23 23 22 19 17 15 13 10 8 11 10 10 14 22 25 19 15 11 15 14 6 7 8 9 4 7 10 11 13 12 6 6 4 4 7 7 9
26 24 22 22 22 23 23 23 21 21 23 16 15 15 12 11 10 10 11 13 16 24 24 20 24 15 14 13 1 3 8 9 9 8 8 10 11 9 6 4 6 8 9 11 11
30 28 24 23 23 24 22 21 21 23 20 12 10 13 12 10 11 12 15 17 16 15 32 14 14 9 13 10 4 6 7 14 9 6 6 10 11 9 7 7 8 11 12 14 13
33 30 28 27 25 25 21 18 21 18 14 7 6 6 8 12 14 14 18 21 21 16 20 16 15 17 18 11 7 10 8 16 7 7 5 8 11 5 9 11 11 13 14 16 16
35 32 32 29 28 25 21 17 19 16 12 9 7 9 10 14 14 19 22 23 22 11 15 8 18 16 20 8 6 7 6 11 12 8 8 6 9 23 7 16 15 16 18 19 20
38 34 36 33 33 25 21 17 17 14 13 10 11 11 15 15 18 17 23 24 18 14 17 4 12 12 7 11 6 13 4 8 7 8 14 7 13 21 15 23 22 22 23 24 24
40 39 38 38 36 29 24 18 16 17 16 10 11 12 15 16 16 21 22 28 26 23 15 21 16 15 14 13 11 10 11 7 10 9 14 10 13 12 20 21 23 25 28 28 26
43 42 44 42 39 32 27 19 20 21 16 13 10 8 11 13 15 19 24 23 25 19 17 16 13 18 18 15 12 13 12 9 9 11 11 18 18 15 27 26 27 20 22 21 20
47 48 49 46 42 36 29 22 24 19 17 12 11 11 12 13 16 20 24 22 27 21 14 15 16 20 16 12 8 10 12 12 13 10 8 20 14 16 17 16 16 12 11 11 11
53 53 52 50 45 40 33 25 23 20 21 14 16 14 15 17 18 20 19 21 21 21 23 12 19 19 13 14 14 16 16 18 17 17 18 14 12 13 11 9 9 9 10 9 11
53 53 55 53 49 43 37 31 24 27 25 19 17 16 17 18 20 20 18 20 23 19 19 17 17 21 16 18 19 20 19 17 18 18 12 5 11 13 12 13 14 13 13 15 17
56 55 57 56 54 48 41 35 28 28 27 22 19 19 19 21 21 19 17 18 17 17 17 17 17 19 19 19 17 20 20 19 20 17 14 14 8 13 14 15 15 17 18 19 21
60 61 60 60 57 48 45 39 33 31 30 26 23 22 21 21 20 18 17 16 17 16 16 20 20 23 18 23 21 23 21 20 20 18 17 18 16 15 18 19 20 20 22 24 26
63 65 61 61 56 54 50 41 38 37 35 30 27 26 25 23 21 20 20 19 18 19 22 19 22 23 25 22 21 20 19 19 21 21 19 20 16 20 22 23 23 23 25 28 30
69 66 62 59 56 56 53 47 42 40 40 35 32 31 27 24 23 21 20 18 18 20 21 23 24 24 24 17 19 17 19 20 23 24 19 19 21 27 28 28 28 27 30 33 35
73 66 60 60 60 58 54 43 43 42 42 38 36 32 27 25 22 21 20 20 22 23 24 24 24 24 23 23 21 20 20 21 23 21 25 18 25 23 32 37 34 34 36 40 41
65 68 68 54 61 60 57 45 47 43 43 39 37 31 28 24 21 22 22 22 23 23 23 22 24 23 23 22 22 22 21 20 22 23 25 25 31 31 35 39 39 42 44 46 48
70 66 68 65 63 61 54 46 49 42 44 41 35 33 30 27 22 21 21 20 19 18 19 21 22 23 24 22 24 21 18 21 24 25 29 32 32 39 39 41 43 46 47 48 49

GFSSW_500_spd_048.txt.gz
Wind_Speed
34 34 33 36 34 30 28 27 29 32 36 40 39 34 34 28 25 24 22 19 17 15 12 12 13 18 22 24 18 14 11 6 7 24 31 41 29 11 20 24 27 31 26 10 16
35 34 34 35 32 29 25 28 29 32 35 39 36 33 31 27 23 20 18 17 14 13 13 11 8 8 12 20 19 15 7 4 28 30 34 37 43 14 13 16 23 22 25 19 21
36 34 35 34 27 26 26 28 28 32 34 37 34 32 27 23 25 16 18 15 14 13 13 8 7 7 10 15 16 14 12 11 23 23 25 23 12 8 18 10 18 16 14 23 22
36 36 35 32 26 26 25 27 28 30 33 35 34 30 24 22 27 17 18 16 15 9 6 8 8 8 12 14 14 13 14 15 21 21 17 12 7 8 14 19 4 8 10 12 14
37 36 33 29 25 24 25 26 28 29 33 33 32 28 26 20 23 17 17 17 12 8 9 12 10 9 14 8 9 14 21 26 18 20 15 16 17 18 10 2 6 12 9 9 12
37 35 32 27 25 23 24 25 28 29 32 32 30 26 24 21 20 15 14 13 11 12 10 11 12 14 16 11 8 14 24 25 29 25 16 13 17 14 14 4 5 7 8 7 7
37 34 29 28 23 21 22 24 27 29 31 32 27 25 20 20 17 9 11 11 12 11 11 11 12 12 13 18 21 24 21 19 23 21 16 11 10 13 9 7 6 6 4 4 6
35 33 29 26 22 21 21 23 25 28 29 30 26 24 21 18 13 10 9 10 10 10 9 8 10 13 17 17 17 24 18 11 19 21 18 14 11 8 3 4 5 5 4 3 2
35 32 29 25 21 21 22 22 23 27 29 28 27 23 21 16 8 9 8 7 7 9 7 10 16 17 18 15 16 14 7 16 13 19 3 8 11 6 4 5 4 3 2 2 2
34 32 29 24 22 21 21 19 22 25 27 26 25 22 19 14 9 9 6 6 7 8 16 20 19 19 20 14 9 5 3 4 4 4 8 3 7 9 7 6 4 4 5 4 4
35 31 28 25 24 23 22 18 20 25 25 24 21 19 15 8 7 10 6 8 8 13 23 23 13 12 10 13 5 3 5 3 6 4 5 9 14 7 8 6 5 5 5 5 7
35 33 30 28 26 25 23 20 19 23 23 21 14 8 9 4 6 9 7 10 5 11 16 14 16 11 11 6 2 3 9 7 10 8 5 9 12 3 4 5 8 8 8 9 9
38 36 34 31 29 28 25 22 20 24 21 18 12 8 2 5 5 10 11 12 7 14 18 25 11 15 9 3 4 3 12 24 22 12 6 11 12 10 5 7 7 12 14 13 15
41 39 38 34 31 30 28 23 22 25 22 17 12 9 6 7 7 8 16 14 12 13 13 11 13 20 15 12 8 13 16 3 11 4 7 15 19 29 22 6 7 14 20 22 20
45 44 41 36 36 33 28 25 24 24 21 19 13 15 10 9 8 11 11 12 11 15 15 4 7 15 7 12 10 14 15 8 7 11 20 18 19 9 20 17 14 13 20 26 28
48 45 43 40 40 35 34 27 27 26 20 17 16 12 9 11 9 12 15 14 15 17 4 21 13 9 22 14 11 14 8 2 3 7 14 14 6 17 19 16 19 7 15 24 30
46 44 43 42 42 37 36 33 29 31 18 20 16 12 7 9 9 13 13 16 15 21 14 15 14 16 16 16 14 15 11 8 18 12 6 6 12 13 21 17 30 24 18 23 23
47 43 45 45 43 43 39 35 32 30 23 22 13 11 6 7 8 10 15 16 15 23 7 16 8 7 13 15 16 13 8 16 9 6 9 13 6 15 20 17 20 22 17 14 14
48 44 42 47 47 45 44 38 35 28 23 24 16 13 8 10 10 9 14 15 15 20 20 23 23 23 14 14 16 3 10 16 13 13 11 12 13 15 15 16 14 11 13 13 12
49 47 48 50 50 49 47 40 39 30 29 22 20 14 12 12 14 13 15 16 14 15 24 24 28 16 10 11 13 13 14 11 14 15 12 2 2 23 15 14 15 16 15 15 16
53 51 52 53 54 51 44 40 40 35 32 29 21 18 15 13 17 15 16 16 22 26 28 30 12 14 8 14 14 14 16 17 16 15 13 11 9 18 20 17 16 18 18 19 22
59 55 52 54 54 49 44 44 42 37 37 30 26 23 20 21 19 17 17 15 17 18 21 20 18 24 13 19 14 16 17 19 19 17 22 18 22 18 18 20 20 22 23 25 26
56 57 56 57 53 49 47 46 46 41 41 32 30 24 23 21 17 18 18 24 22 21 21 24 20 19 16 16 12 16 19 22 23 25 21 19 18 23 24 25 26 25 27 28 30
68 68 65 55 52 50 48 47 48 45 41 35 31 28 28 27 26 24 25 23 17 22 20 21 18 20 20 16 19 20 19 22 23 24 18 22 19 20 25 32 32 27 27 33 35
73 69 63 57 53 52 50 50 49 47 44 38 35 34 32 29 27 26 25 21 22 20 21 21 20 21 23 23 25 21 22 19 22 21 23 18 23 22 18 32 39 37 35 36 38
72 67 61 57 56 53 46 45 49 47 45 38 40 36 35 31 27 25 25 22 22 22 23 24 24 27 25 24 27 23 24 22 22 21 23 23 26 25 33 39 37 41 41 45 45
67 65 62 60 57 52 43 47 48 47 45 38 38 37 35 27 26 30 25 25 24 23 24 23 24 25 24 26 27 25 22 23 22 23 24 26 27 32 36 41 39 38 43 45 46

GFSSW_500_spd_051.txt.gz
Wind_Speed
35 35 33 33 32 31 31 30 26 26 27 30 34 35 38 37 34 30 26 21 19 18 16 11 9 13 20 21 20 17 9 10 18 19 22 29 28 26 37 17 28 32 24 27 11
35 35 34 33 32 30 30 28 25 26 25 30 33 35 38 36 32 29 24 19 18 16 17 13 9 11 14 19 22 16 10 14 21 18 24 27 29 31 31 32 19 16 18 24 20
35 35 33 32 31 30 29 26 25 24 25 31 33 35 38 35 31 26 24 19 15 16 15 13 6 5 6 13 23 18 14 15 15 16 16 22 24 26 27 22 19 12 15 18 11
35 34 33 31 30 30 26 25 24 22 25 31 32 35 35 33 31 22 20 17 14 15 10 7 5 5 4 7 18 16 17 11 27 18 17 16 23 23 15 24 13 9 8 15 11
35 34 33 31 30 28 24 23 23 21 25 29 31 36 33 30 29 21 20 14 13 8 5 6 7 6 12 14 18 16 15 13 23 20 20 15 18 20 14 19 15 6 10 9 8
37 34 32 31 30 26 23 23 22 22 25 27 30 34 34 31 25 21 14 10 9 6 7 7 9 9 11 15 12 14 20 23 26 23 23 20 13 20 1 18 12 8 3 3 4
36 35 34 32 28 25 22 22 21 22 22 26 29 33 33 27 25 21 9 10 7 7 7 8 9 11 15 20 17 17 21 21 22 27 24 13 13 8 7 14 8 6 4 4 5
37 37 35 31 27 25 23 23 21 20 21 26 28 34 31 26 19 9 7 8 8 7 6 5 8 13 16 15 16 18 15 17 19 23 12 8 13 13 9 10 2 4 3 4 5
40 38 34 30 26 24 23 23 21 16 19 25 28 31 25 21 14 7 7 8 6 8 6 7 8 11 11 14 11 15 6 3 7 11 13 13 12 10 9 5 2 3 4 3 3
40 38 34 30 27 25 25 23 19 14 19 24 26 27 22 14 12 8 7 6 7 9 5 4 8 11 12 11 11 16 9 11 8 14 10 11 7 6 3 0 2 1 3 3 2
40 39 34 29 27 27 26 24 19 15 17 21 26 24 16 9 5 7 7 5 6 10 4 10 13 14 13 8 8 8 15 10 10 6 6 6 7 6 2 3 1 3 1 1 3
42 39 36 31 28 28 28 25 20 16 17 20 23 20 11 6 5 8 7 3 5 7 4 13 20 8 14 14 9 7 3 12 10 8 3 5 6 2 7 6 3 2 4 6 9
44 41 38 33 30 30 28 28 22 19 16 21 21 18 11 5 7 11 9 3 5 9 12 10 14 4 11 15 5 2 2 10 14 11 8 13 16 18 3 9 7 4 4 5 7
46 43 41 36 33 32 32 29 26 21 18 20 18 13 12 8 8 13 12 7 7 9 11 13 8 25 21 14 4 9 1 12 18 8 8 14 14 18 17 13 11 13 11 8 11
49 46 44 39 37 34 34 34 31 24 22 20 17 13 13 10 12 14 8 10 8 9 8 14 12 17 13 13 2 8 6 3 9 8 11 12 16 20 29 21 16 14 11 14 14
52 49 46 43 42 38 39 36 31 28 25 24 15 16 12 12 11 17 10 7 10 12 5 5 16 14 10 11 7 6 3 13 11 13 18 7 17 10 18 12 20 3 18 19 19
54 51 49 48 45 40 40 39 34 34 24 23 18 17 13 11 13 15 11 11 11 9 13 5 16 3 8 2 6 10 10 18 15 12 10 11 17 10 15 15 10 10 12 17 18
54 55 51 49 47 42 42 41 39 33 30 28 24 18 13 11 14 14 13 16 16 10 14 12 9 10 13 12 11 14 13 20 17 6 15 9 11 12 11 14 12 12 9 8 10
58 56 51 46 45 45 45 43 38 32 33 28 28 22 14 12 16 9 10 14 17 16 19 17 18 15 22 18 15 14 18 14 8 9 11 8 14 14 12 15 13 10 11 12 13
56 54 50 47 46 46 47 44 39 36 37 31 31 24 19 13 16 15 11 11 16 18 21 22 25 21 19 15 10 7 13 8 11 12 9 10 13 13 11 15 14 13 14 15 16
56 55 48 52 48 49 52 47 39 37 36 35 31 28 21 16 15 15 14 13 13 16 17 22 26 23 20 28 16 11 13 14 16 16 13 11 15 15 13 16 19 19 16 17 19
58 56 55 54 56 54 52 46 42 37 37 37 36 32 26 19 16 18 18 14 15 26 25 25 22 23 9 11 10 12 14 17 18 15 20 15 15 22 16 20 22 22 23 20 22
59 58 58 55 54 54 53 48 47 39 40 42 38 34 26 26 24 24 21 21 20 27 22 19 22 22 19 11 13 15 17 18 20 24 20 20 14 19 23 27 29 31 28 27 27
66 65 60 59 56 54 52 50 47 41 41 42 39 36 29 29 29 25 24 22 23 23 21 20 23 20 18 18 19 21 19 18 21 27 23 21 16 17 23 28 32 33 31 25 27
72 67 63 55 55 57 55 54 49 45 43 43 44 39 31 33 30 26 26 28 24 20 22 24 23 22 21 22 23 26 23 20 22 19 21 14 18 16 24 29 33 35 33 33 37
69 64 61 57 50 54 57 53 43 41 40 42 42 37 31 36 32 31 30 30 23 21 23 23 23 23 24 24 25 26 24 20 25 22 21 20 19 18 27 32 35 37 37 40 43
65 63 61 59 53 56 59 48 42 41 43 41 37 36 31 36 31 36 33 29 24 26 25 24 24 27 27 27 28 28 20 25 23 22 23 25 26 26 30 34 35 35 35 38 42

GFSSW_500_spd_054.txt.gz
Wind_Speed
34 33 32 31 31 31 29 28 27 27 28 24 23 28 32 37 40 40 33 27 22 17 16 15 12 11 17 22 21 15 10 15 24 30 30 23 18 18 17 18 26 25 32 31 24
36 34 32 31 30 30 29 27 26 27 26 23 22 28 33 37 41 38 32 24 20 16 13 16 13 9 12 23 23 16 15 15 27 32 26 19 19 20 18 21 25 25 29 23 25
38 36 34 32 31 29 28 27 25 26 25 20 22 28 33 37 42 35 28 21 18 15 15 13 11 2 1 7 22 22 17 20 22 21 22 19 21 22 23 31 31 29 24 17 17
38 35 35 33 32 30 29 26 24 25 23 20 23 28 31 38 40 33 25 20 16 13 12 8 4 7 5 11 18 24 21 22 19 17 17 14 14 16 24 24 26 20 19 24 18
39 37 36 35 32 31 29 25 23 23 21 19 22 28 30 37 39 30 21 19 9 11 6 3 6 6 10 16 21 25 25 27 20 14 17 16 10 13 18 14 10 17 15 14 15
42 40 38 37 34 31 28 24 23 23 21 19 22 27 29 37 36 26 22 11 8 5 5 6 8 8 11 18 22 25 21 15 16 22 19 15 17 20 15 9 14 10 7 6 11
43 41 38 37 34 32 29 25 23 23 20 18 22 25 28 34 33 23 17 3 6 7 5 7 7 10 12 16 19 18 14 22 22 22 19 18 16 4 8 12 11 9 12 6 7
42 39 37 35 34 32 29 26 23 22 20 18 22 24 27 29 28 18 6 4 7 7 8 9 8 8 10 15 16 18 17 18 18 17 20 11 7 8 9 4 8 13 9 7 8
41 38 37 36 36 32 28 25 23 21 20 17 22 22 24 23 24 17 8 5 6 7 9 5 6 7 8 15 14 16 8 12 14 19 11 12 13 9 8 8 11 9 7 7 7
43 39 37 37 35 31 28 25 23 21 21 16 20 20 21 21 19 13 10 5 7 7 5 2 0 7 8 13 15 10 8 11 14 14 14 12 9 10 8 6 7 9 6 5 6
44 40 38 38 35 30 29 25 23 23 22 17 18 19 20 20 16 9 12 5 5 7 1 2 2 7 10 11 14 15 17 7 9 10 10 11 10 7 9 9 6 6 3 6 5
46 42 39 38 35 31 29 28 25 23 22 19 19 19 19 18 13 11 10 9 2 5 1 5 10 13 7 10 13 20 15 11 10 6 5 3 4 3 6 5 1 4 1 1 2
49 45 41 38 36 33 31 29 24 28 25 25 21 19 18 17 12 12 11 10 4 4 3 3 8 1 10 14 14 5 2 7 8 4 2 2 9 8 6 5 4 4 6 5 5
52 48 43 40 38 35 32 31 29 31 29 25 23 17 15 15 14 14 11 11 15 2 4 5 0 7 14 12 5 6 4 6 12 11 5 13 9 8 8 10 11 5 3 3 4
55 51 47 43 40 39 37 35 33 30 32 26 22 16 13 16 14 12 15 13 14 6 3 3 13 14 18 11 4 8 11 5 10 12 11 9 16 13 15 19 18 16 6 6 4
59 54 50 48 45 44 40 38 36 34 35 26 21 18 14 16 12 16 15 13 14 6 6 4 7 21 16 13 8 5 7 6 9 15 16 16 17 13 8 9 8 4 5 7 4
60 56 52 50 50 46 41 41 39 39 31 31 25 20 16 15 12 16 14 16 19 9 12 10 22 17 16 11 11 6 7 12 13 14 13 16 20 9 8 4 3 3 7 8 5
60 56 54 51 52 48 45 44 44 39 35 34 28 24 20 17 14 14 16 19 21 18 16 15 12 19 12 16 16 12 8 14 22 20 19 18 17 12 7 4 3 5 7 3 4
61 60 56 53 54 51 48 47 44 39 35 36 34 34 26 18 17 16 15 20 25 21 19 22 20 16 13 13 19 16 14 14 18 18 15 16 19 16 10 12 9 4 6 7 7
63 60 54 54 54 54 53 47 45 40 40 41 38 38 30 24 19 17 16 20 26 24 22 20 19 18 18 15 15 16 18 13 12 16 14 14 21 20 16 13 8 10 8 9 9
63 61 58 56 59 59 53 49 46 42 43 42 38 39 30 25 20 18 16 20 25 20 21 28 24 21 18 20 19 21 15 16 17 14 15 14 19 21 18 17 16 15 15 14 14
66 63 59 64 66 62 55 51 47 43 45 43 40 39 32 26 21 21 20 21 21 25 22 23 25 20 14 17 24 24 17 18 17 15 19 19 17 19 21 20 22 23 20 18 16
69 66 64 63 60 57 56 55 50 42 45 44 40 39 32 28 26 23 21 25 23 28 24 23 25 24 19 21 16 17 23 23 20 23 23 24 17 18 23 24 29 32 29 23 23
74 72 70 66 55 52 54 55 53 39 46 45 40 40 34 30 27 27 22 27 25 27 24 27 25 25 19 17 22 24 23 21 23 24 25 25 23 22 24 27 30 32 31 26 24
81 76 68 63 56 54 56 58 58 42 47 45 44 44 36 33 29 29 26 30 30 28 31 28 29 24 22 21 22 25 26 23 25 25 25 19 18 16 25 28 29 31 32 29 28
84 74 66 58 55 54 53 52 57 47 46 48 46 41 38 33 31 27 28 27 27 28 31 31 28 26 25 23 25 27 28 25 23 24 26 23 21 21 25 26 27 30 31 32 34
81 71 66 60 58 58 53 53 55 47 47 40 40 40 39 27 29 28 30 28 27 30 29 27 28 27 26 26 27 30 26 29 29 27 29 27 26 25 26 26 26 28 30 32 35

GFSSW_500_spd_057.txt.gz
Wind_Speed
36 35 35 34 33 31 31 29 27 26 25 25 26 26 26 30 36 40 46 41 26 20 17 17 16 11 14 15 20 20 15 14 18 22 23 19 10 18 20 24 21 22 30 28 32
40 38 37 36 34 32 32 30 27 26 25 24 25 25 26 32 36 40 45 34 21 17 14 16 15 10 11 17 21 16 15 16 22 24 24 25 18 17 20 21 23 22 20 23 26
42 40 38 37 34 32 32 30 28 27 25 23 24 25 26 32 35 42 42 32 20 15 13 15 10 7 5 14 21 20 17 22 20 21 22 26 20 21 25 27 29 25 26 25 26
44 42 40 37 33 32 33 30 29 28 24 23 24 25 26 31 36 41 40 24 17 11 11 9 4 6 8 13 15 25 21 24 19 16 21 20 19 19 22 24 28 25 21 25 20
45 43 40 38 35 34 34 32 30 28 23 23 24 24 27 30 35 39 35 22 9 9 7 5 4 8 9 13 16 14 23 26 22 20 18 17 16 19 17 16 12 13 16 17 18
45 43 42 40 38 37 34 33 31 29 23 24 25 23 25 28 33 35 33 15 6 7 7 8 8 8 9 12 16 15 25 22 22 21 20 13 14 19 17 8 7 8 11 6 13
48 46 43 41 40 38 34 33 31 29 23 24 24 23 24 27 30 31 28 9 8 6 7 9 8 10 12 12 15 16 24 25 20 22 23 18 13 16 6 2 6 11 7 12 17
50 46 43 40 40 37 34 32 31 27 23 25 24 23 23 25 27 28 24 9 9 8 7 9 11 11 10 15 16 14 15 21 17 20 19 15 9 7 8 4 9 16 10 12 13
51 50 44 39 39 36 33 33 31 26 24 26 24 22 22 23 26 25 21 10 9 13 11 10 8 10 8 15 14 14 11 17 17 16 20 12 12 12 13 17 14 11 9 11 10
52 49 43 40 37 36 34 34 31 26 25 26 24 22 20 22 25 22 19 9 10 11 11 4 4 4 8 11 15 13 10 14 14 16 20 14 15 12 13 12 11 8 8 7 7
53 49 48 41 38 36 35 33 32 25 26 27 24 24 19 21 23 21 16 9 10 10 5 6 6 1 6 6 7 14 6 14 15 12 10 13 10 11 13 14 11 11 10 9 8
56 53 50 46 39 35 35 36 30 25 27 29 26 26 20 20 21 17 14 8 8 6 3 3 4 3 7 10 10 11 6 13 10 15 15 13 8 12 11 8 9 9 12 11 8
59 56 52 49 43 35 35 36 29 28 28 32 26 27 22 21 18 16 15 10 9 8 4 3 3 4 9 11 17 13 9 8 7 7 10 11 13 9 8 8 8 6 9 9 7
62 58 57 51 44 39 39 35 32 31 33 31 30 27 22 20 17 13 14 12 12 11 7 6 7 15 13 18 15 6 10 13 11 6 4 4 7 6 8 9 9 4 1 2 4
61 59 55 50 44 44 41 37 35 32 36 33 32 27 23 20 16 13 16 15 14 13 12 10 10 8 10 15 8 6 8 10 11 9 5 5 6 6 5 10 13 12 6 8 8
63 58 56 52 48 47 43 41 37 37 39 33 30 28 25 21 16 14 16 15 16 16 15 13 9 10 18 16 10 7 7 8 10 10 10 11 10 6 9 8 7 7 9 10 6
63 60 55 55 50 50 46 42 42 44 36 36 31 26 28 22 17 14 15 14 15 16 16 12 12 18 17 13 14 15 11 12 12 13 12 15 15 10 12 8 9 8 10 8 6
64 62 57 54 55 52 50 47 46 42 40 36 34 34 30 26 20 16 15 15 15 21 22 18 20 20 15 14 18 19 16 15 17 14 14 15 16 11 10 12 13 12 12 8 7
65 62 58 56 58 56 54 52 47 44 43 41 40 36 31 29 24 19 17 16 17 22 22 23 23 26 23 17 19 18 17 18 19 19 19 19 20 13 15 16 15 13 10 8 7
67 64 58 56 60 59 57 51 49 46 45 44 42 37 37 32 31 21 19 15 18 20 26 27 26 26 31 21 18 16 20 17 17 14 15 18 19 16 18 17 16 17 13 12 9
70 68 61 59 58 61 55 51 50 47 48 46 47 42 38 36 29 26 22 17 18 21 23 29 31 30 29 22 14 17 18 22 21 21 16 19 19 19 18 19 19 20 19 16 15
74 71 65 66 66 59 54 53 52 47 50 48 49 44 40 37 32 27 22 19 19 20 24 28 33 32 29 20 17 21 25 25 24 20 21 23 19 18 19 21 23 22 23 21 20
79 74 72 70 68 56 54 55 54 50 51 50 49 48 45 40 35 28 21 20 20 23 25 28 31 31 29 26 19 17 15 25 27 24 25 25 19 19 21 25 27 29 29 27 26
84 84 80 77 62 59 56 54 56 47 50 53 53 51 48 44 34 29 24 20 19 21 26 27 28 27 24 20 21 25 23 25 24 27 29 26 22 21 23 29 31 32 30 27 22
91 88 80 76 64 59 59 58 57 54 54 54 53 52 48 43 37 29 26 21 21 22 26 28 30 27 28 28 23 24 22 26 29 28 27 26 26 23 25 28 28 26 26 27 25
95 88 81 71 65 61 59 58 57 54 55 56 53 50 48 43 36 27 26 24 22 21 24 28 32 31 30 26 25 26 27 30 32 27 28 29 30 28 24 26 26 24 25 25 24
95 89 81 75 69 66 59 55 53 55 53 53 50 46 46 39 34 29 31 28 25 24 26 26 27 27 29 31 31 32 26 30 30 31 31 32 31 29 27 24 24 24 24 26 29

GFSSW_500_spd_060.txt.gz
Wind_Speed
42 41 39 38 36 36 35 34 33 31 29 28 27 27 29 30 30 36 40 45 50 40 22 17 15 16 16 13 11 15 10 13 16 19 18 17 17 2 10 21 22 26 23 22 27
44 42 41 40 39 38 37 34 33 31 29 28 27 27 30 30 30 37 40 44 49 34 19 15 14 16 14 12 14 17 14 18 18 18 19 18 16 16 15 17 21 24 25 26 22
44 43 42 41 41 39 38 35 33 30 29 28 27 28 30 29 31 36 39 44 44 31 14 12 14 15 12 10 13 19 19 19 15 12 15 19 20 21 19 22 23 28 28 26 25
45 44 43 42 43 40 39 36 33 31 30 28 27 29 29 28 33 35 39 43 40 23 12 12 10 11 7 10 11 14 22 16 16 12 12 16 19 20 22 24 25 28 28 27 28
46 44 43 43 43 41 38 36 35 33 31 28 28 29 29 27 32 35 37 40 35 17 12 13 9 9 7 11 13 11 16 23 19 18 14 13 17 19 22 23 23 15 14 23 23
51 45 42 42 43 41 39 40 37 35 31 29 28 29 28 27 30 32 35 37 29 18 14 11 11 11 9 12 11 13 12 19 20 18 19 17 19 19 19 19 13 10 8 6 10
48 47 45 42 42 39 43 42 38 35 31 29 28 28 27 27 28 31 33 33 25 16 11 11 11 13 12 15 11 12 11 13 20 19 20 19 22 21 17 12 4 10 16 14 14
49 45 46 44 44 43 44 41 37 36 31 28 28 28 26 26 27 28 31 30 20 16 13 15 15 14 13 15 12 15 12 10 15 18 20 19 19 17 8 5 12 12 13 16 11
50 49 47 47 45 46 46 40 39 35 31 27 27 28 25 26 25 26 29 27 18 15 16 17 11 13 12 13 12 9 9 10 12 10 8 14 12 12 16 16 13 12 12 14 13
55 51 49 46 45 45 49 42 36 34 29 27 28 28 24 24 25 25 27 25 15 15 18 12 8 6 8 7 9 8 11 7 8 19 20 22 21 14 15 9 7 7 11 11 10
57 55 51 50 47 46 43 40 38 34 29 28 28 29 24 26 26 24 24 22 13 11 10 8 11 9 6 3 5 9 6 3 16 8 13 18 22 20 17 12 9 7 9 10 10
60 56 51 53 48 47 41 40 42 35 29 30 29 28 26 25 26 24 23 19 11 9 7 7 10 5 4 5 4 4 4 8 13 12 14 12 16 17 17 13 10 8 7 9 8
60 59 54 54 51 48 45 43 38 36 33 30 30 28 27 26 28 24 21 19 13 11 7 9 10 9 8 7 9 9 5 12 11 14 12 10 7 9 10 10 10 9 8 6 8
62 60 57 56 53 52 49 45 39 37 34 29 33 29 28 25 27 23 21 18 15 13 12 9 9 11 12 11 13 12 8 10 10 7 10 10 10 8 10 7 8 8 9 5 6
63 62 60 59 53 53 51 48 43 40 36 33 36 31 28 26 27 20 22 18 14 15 16 15 8 8 13 16 14 4 6 9 10 12 11 8 9 12 7 4 10 14 8 13 14
64 63 62 61 53 54 51 48 44 40 41 35 34 32 29 30 28 26 19 16 15 16 17 16 14 15 15 18 17 7 4 7 11 13 12 11 6 5 7 7 10 13 15 19 16
62 63 63 60 52 54 52 50 46 42 37 39 33 28 29 30 27 26 19 15 14 13 14 18 16 21 19 23 21 17 10 10 13 14 15 15 12 4 12 10 9 7 8 11 16
64 64 63 60 56 54 52 52 49 43 42 39 36 34 32 31 28 28 21 16 14 10 21 18 16 19 19 22 21 19 14 14 16 16 17 18 18 11 13 14 14 12 11 13 15
68 66 63 58 57 56 54 53 47 43 41 43 39 37 37 35 30 30 22 19 14 11 16 23 19 22 22 26 22 18 19 18 20 18 18 17 18 16 14 15 15 15 17 17 14
73 70 64 58 60 61 60 52 45 43 42 45 42 42 38 32 32 32 27 20 14 12 16 22 23 26 28 26 26 19 20 22 22 22 18 11 13 12 12 17 19 17 16 17 18
79 74 66 62 64 67 59 55 48 46 47 47 45 43 39 37 35 33 28 25 21 16 13 17 27 27 28 27 29 26 24 24 22 22 23 18 10 12 17 18 20 20 20 19 20
84 79 70 67 72 67 59 55 52 48 48 50 48 44 42 39 38 36 32 27 24 18 14 16 22 30 30 30 31 31 30 30 28 25 23 23 14 15 17 18 20 22 22 20 21
89 82 78 75 76 64 58 55 54 51 51 50 50 48 46 43 42 38 30 25 26 19 17 17 20 21 26 31 32 34 29 29 27 23 22 24 15 15 18 21 24 27 28 29 25
93 91 85 82 70 66 62 56 56 51 55 53 50 51 47 45 44 38 31 30 25 22 20 20 22 16 18 15 19 27 29 28 26 24 21 18 20 18 20 24 27 29 31 30 29
99 97 88 87 77 66 63 59 57 52 55 53 50 52 49 46 43 38 32 30 26 24 25 24 21 19 21 23 25 26 24 31 32 29 24 20 22 21 22 24 26 27 24 23 24
100 96 91 82 70 73 69 62 59 53 56 56 54 51 52 47 41 36 33 31 28 27 27 26 23 21 23 26 28 31 27 32 31 30 26 25 25 24 27 27 26 27 27 26 25
100 96 91 84 81 78 66 58 57 53 53 54 50 45 50 46 39 39 35 36 34 32 29 30 26 22 25 25 31 31 18 25 29 28 27 28 27 30 30 28 26 27 26 27 29

GFSSW_500_spd_063.txt.gz
Wind_Speed
41 41 40 39 38 37 35 34 34 34 33 33 32 30 29 31 32 33 34 38 43 48 47 35 23 17 17 16 11 7 8 12 11 12 13 13 12 8 2 5 14 13 17 24 25
41 41 40 40 38 38 36 35 35 34 33 33 30 29 30 31 32 33 34 38 43 46 44 30 19 17 18 16 11 9 10 15 12 8 12 12 12 11 16 11 11 16 19 19 25
44 42 41 41 39 38 38 37 36 35 33 32 29 29 30 31 32 33 33 37 43 44 39 26 19 16 14 11 9 9 13 14 13 10 6 7 10 14 17 18 20 20 20 22 25
45 45 43 42 41 40 38 37 36 35 33 31 30 30 31 31 32 31 32 36 41 43 32 24 17 12 12 9 10 8 13 16 12 12 8 6 7 12 16 20 22 27 24 23 26
47 46 44 44 45 42 40 37 37 36 32 31 32 31 31 31 32 30 31 35 38 39 25 20 14 13 13 12 10 10 8 12 22 15 14 11 10 13 17 18 22 23 21 16 18
49 47 47 50 48 42 41 38 37 35 31 34 33 32 31 30 30 30 29 34 36 34 22 17 12 13 13 13 12 9 7 9 13 21 17 15 14 14 18 19 20 21 17 12 13
51 52 48 48 44 49 44 42 37 35 35 35 32 32 31 29 28 28 27 32 33 28 20 16 13 15 13 12 12 9 9 11 12 15 22 15 14 14 15 21 18 9 6 7 9
55 51 51 47 48 43 40 39 40 38 36 35 31 32 29 28 27 26 26 30 31 25 17 19 17 16 14 13 10 9 9 11 12 13 12 13 15 13 16 10 6 8 15 13 11
56 56 50 49 49 43 40 40 42 40 37 35 31 31 29 27 27 25 25 28 29 22 16 20 16 11 12 12 9 6 4 7 9 13 14 6 12 10 14 14 9 8 8 8 9
58 57 55 50 48 45 43 39 43 40 36 37 31 30 28 27 26 24 24 26 28 20 15 15 12 11 8 7 5 2 7 8 5 6 11 15 13 18 18 12 11 10 8 9 6
58 59 56 53 52 47 45 45 44 44 38 35 32 31 28 28 26 23 24 25 27 21 14 11 12 15 9 7 12 3 2 2 13 16 15 15 16 13 14 14 12 12 9 9 9
60 60 58 54 51 50 50 45 46 40 31 32 35 31 31 29 26 24 23 23 24 18 14 9 8 9 8 5 2 6 4 6 12 7 11 14 9 6 9 10 10 10 11 10 9
60 61 60 56 54 48 45 49 45 44 36 30 38 33 33 30 26 24 23 22 22 17 14 11 6 6 8 7 4 9 3 7 8 10 13 11 9 9 6 4 6 6 5 8 9
63 61 61 59 57 52 49 47 43 46 41 32 38 35 35 30 26 26 23 21 20 15 13 14 8 8 6 13 6 5 3 7 5 6 10 8 10 10 10 6 4 5 7 6 7
66 63 62 60 58 55 51 48 46 43 42 35 33 35 33 30 22 23 24 20 18 16 14 14 10 6 8 12 13 8 7 11 11 14 8 7 8 13 11 7 9 8 9 9 12
67 65 63 61 58 58 54 50 49 44 45 37 32 36 35 31 28 27 27 21 19 17 13 12 12 9 8 8 14 11 7 4 6 9 10 10 7 12 11 10 8 14 16 18 20
71 67 65 62 55 59 58 54 51 51 41 40 34 32 35 31 31 30 28 21 19 15 11 12 14 15 17 17 14 21 15 10 7 8 9 11 10 7 11 13 11 10 16 21 25
76 71 67 62 56 60 58 58 56 53 44 41 35 35 33 32 32 30 29 25 20 14 12 12 14 18 17 19 23 26 25 18 13 13 12 15 16 10 13 14 11 15 14 12 12
81 76 71 64 58 61 60 62 53 52 46 41 43 37 38 34 31 30 29 23 20 17 11 8 14 15 15 17 23 27 27 23 19 18 15 13 16 14 12 15 13 11 11 12 13
84 82 75 67 62 63 64 62 54 49 46 45 44 44 34 36 34 30 28 24 22 17 12 12 13 18 20 20 23 28 27 24 23 21 19 15 13 7 12 9 11 15 15 15 15
87 86 78 72 67 69 69 62 57 50 47 46 45 44 45 38 31 29 27 25 25 22 16 13 12 17 19 21 26 28 27 26 24 24 24 19 15 14 13 13 12 15 18 19 20
86 89 84 78 76 74 69 61 58 49 49 48 46 45 44 41 39 35 30 23 25 25 18 16 16 15 20 21 26 29 28 29 31 29 29 30 24 18 14 15 17 18 18 20 20
80 87 89 84 83 75 66 66 60 51 49 50 48 48 47 42 39 37 30 30 30 30 24 22 20 16 17 19 20 28 30 30 30 32 32 31 23 16 16 16 20 22 24 24 25
64 87 92 88 81 72 73 68 61 55 51 53 50 49 48 45 42 37 32 31 29 30 28 29 27 19 12 13 19 22 23 28 33 34 31 28 19 17 18 18 19 22 24 24 25
59 76 94 92 89 78 74 68 64 57 53 53 53 49 48 46 42 38 34 31 30 31 32 33 29 21 15 17 21 22 22 24 26 27 30 26 27 19 18 19 22 24 25 26 26
56 63 90 90 81 81 80 73 66 58 53 52 51 49 48 45 44 41 36 33 33 32 34 35 29 24 19 19 20 22 20 22 24 27 31 28 21 21 23 22 23 27 29 28 29
48 52 77 90 87 87 78 72 65 58 55 52 50 47 50 42 44 42 39 38 36 35 36 35 31 26 24 22 23 23 12 17 22 23 24 22 18 22 23 25 27 27 29 29 30

GFSSW_500_spd_066.txt.gz
Wind_Speed
40 39 39 39 37 36 34 34 33 31 31 31 32 32 32 30 28 31 33 34 38 38 41 44 41 33 20 17 15 11 7 8 9 7 11 11 7 3 12 13 16 12 10 14 19
41 41 40 39 38 37 35 34 33 33 31 31 31 33 31 31 28 31 33 33 37 37 39 42 35 29 17 15 10 8 7 10 12 9 4 6 7 7 12 11 8 7 12 15 14
43 43 41 41 39 37 37 35 33 33 32 30 30 31 30 30 31 33 32 33 35 36 38 39 31 22 13 10 8 6 7 14 13 9 3 1 3 7 8 11 16 18 16 16 19
45 45 44 41 41 41 40 37 36 34 33 30 31 31 29 31 32 32 31 32 34 33 36 36 28 18 12 10 7 8 7 11 16 13 6 2 4 9 8 11 14 16 21 20 21
48 46 46 44 43 41 41 40 41 41 34 32 31 29 31 32 33 32 30 30 31 31 34 33 25 17 11 9 8 6 6 6 8 16 16 9 8 13 13 16 15 20 20 16 18
49 50 48 46 44 44 40 44 39 42 41 34 33 31 30 33 33 31 30 29 28 29 32 31 24 18 13 11 9 8 7 7 7 8 15 16 11 15 14 17 13 17 18 12 14
52 51 51 50 47 45 44 41 42 39 41 36 30 31 33 34 32 30 29 28 26 26 28 27 23 19 15 12 10 8 8 10 9 11 11 16 17 16 15 17 16 17 12 9 13
54 54 52 51 49 49 47 45 45 36 39 41 33 33 31 32 31 28 28 26 24 24 25 25 23 15 10 10 9 9 9 5 13 10 8 6 10 15 15 15 10 3 8 7 2
56 55 54 52 51 49 47 46 46 37 35 35 33 33 32 32 31 26 27 24 23 22 22 22 17 11 8 5 5 7 7 7 8 9 10 4 8 13 10 11 7 4 6 11 9
55 55 54 54 52 50 47 47 47 40 36 37 32 31 31 32 30 26 25 23 22 21 19 17 14 12 10 5 0 5 8 9 5 12 7 7 10 9 8 8 7 3 3 8 5
57 56 54 52 53 52 48 47 47 43 37 38 33 32 33 31 30 26 24 24 22 20 16 14 10 9 8 8 4 4 8 8 7 2 6 8 12 11 10 7 9 6 5 4 3
62 60 57 52 51 53 50 47 48 46 42 38 37 31 33 31 33 27 25 23 22 19 14 12 8 8 6 6 6 5 4 4 2 1 2 6 7 3 4 5 3 5 6 4 6
65 63 60 56 52 53 51 50 48 45 47 39 39 33 30 33 31 29 27 24 23 19 14 10 6 8 6 5 6 5 3 7 6 8 6 7 2 1 1 2 3 4 3 4 5
68 66 63 60 56 55 53 51 49 47 45 38 39 36 34 35 33 32 28 25 23 19 14 11 7 10 10 8 8 6 4 7 3 3 2 1 3 8 6 5 3 3 5 5 5
71 68 66 62 59 56 54 52 51 48 47 40 39 39 37 36 29 28 28 27 22 19 14 11 8 13 14 6 9 8 9 7 6 8 5 4 4 12 11 9 9 9 10 10 11
77 72 69 65 62 57 57 56 53 50 51 42 37 37 39 37 34 32 30 27 25 21 14 11 9 13 14 6 5 9 10 6 3 5 8 10 8 9 11 14 14 13 15 16 13
75 76 73 69 62 60 59 58 55 54 48 47 39 35 32 32 33 34 32 28 25 20 14 11 9 15 15 13 8 10 15 10 9 6 7 8 8 11 13 15 18 17 17 20 20
70 77 77 73 66 62 61 60 62 55 50 48 42 40 35 33 37 36 35 33 30 22 19 10 10 14 16 18 16 18 20 22 17 14 13 13 11 13 18 18 19 20 16 18 17
70 74 79 77 71 67 65 66 61 58 54 48 46 39 39 37 38 38 37 30 27 22 18 13 11 11 18 21 22 23 24 25 25 21 19 17 13 16 16 19 20 18 21 20 14
58 73 78 78 75 71 71 67 63 59 58 50 47 47 40 38 37 35 36 32 30 27 24 17 15 14 16 19 22 20 23 24 25 22 21 19 15 13 18 14 18 20 21 19 16
48 65 74 78 77 77 80 65 64 64 60 50 47 48 45 42 42 34 32 29 30 28 25 20 17 17 14 14 20 20 20 25 26 24 23 21 18 11 18 20 18 17 18 21 20
49 51 67 77 82 83 79 65 65 65 62 52 49 50 50 46 42 40 35 27 30 30 27 21 21 18 17 14 18 22 22 26 27 27 28 29 25 22 22 24 23 20 19 19 21
54 46 56 65 85 84 74 73 71 66 64 54 48 49 51 45 46 43 35 33 32 32 32 26 27 24 21 17 16 17 18 23 27 27 29 31 26 24 20 23 25 19 22 20 20
58 56 53 61 79 81 77 80 73 70 63 56 50 50 51 48 45 45 40 37 36 34 33 31 31 27 22 17 19 19 19 23 25 31 28 29 25 23 23 24 23 23 22 22 23
64 61 52 43 75 86 82 79 75 73 63 59 53 52 53 52 46 40 39 40 39 38 38 37 37 28 24 23 23 22 21 23 25 23 28 20 24 17 21 24 21 20 22 23 24
64 59 56 49 44 76 84 86 81 73 64 59 54 51 51 49 47 46 42 41 42 42 40 38 37 31 30 27 25 26 20 23 23 24 23 23 21 19 22 23 25 22 22 23 26
63 59 56 52 41 66 88 85 80 73 68 60 53 48 52 48 42 45 44 44 46 46 44 41 40 34 32 29 29 28 18 17 20 23 23 22 16 17 19 20 20 20 23 24 26

GFSSW_500_spd_069.txt.gz
Wind_Speed
39 38 37 36 36 35 35 32 32 31 30 31 29 29 30 32 32 30 28 31 36 36 35 35 36 40 41 23 15 9 8 7 8 8 13 17 10 13 10 16 11 14 14 11 13
39 38 39 38 37 36 36 35 31 31 31 31 30 30 30 30 32 30 29 32 34 36 34 33 34 39 33 19 13 6 3 7 14 15 18 18 13 14 7 11 12 12 18 16 15
44 43 42 41 39 38 38 36 34 31 31 31 30 30 30 30 32 29 30 32 34 34 32 31 32 35 25 16 12 6 5 11 15 15 11 9 8 10 6 10 11 16 16 17 17
49 47 46 45 43 40 39 37 36 34 33 31 31 30 30 31 32 29 30 32 33 32 29 28 29 30 20 12 10 8 8 12 13 18 11 9 9 11 9 13 12 13 18 21 22
50 48 48 46 45 44 40 39 38 37 36 35 33 34 33 33 31 31 31 32 31 30 26 25 27 29 18 11 10 9 10 11 9 12 16 16 13 15 16 16 13 16 18 20 23
52 50 49 48 45 43 44 41 38 38 36 37 36 36 33 33 32 31 30 30 28 28 23 22 26 27 17 13 9 13 12 13 14 14 13 14 16 17 21 17 15 15 20 17 19
53 51 48 47 46 45 43 42 42 39 37 38 38 37 33 33 31 31 31 29 27 26 20 19 24 24 17 13 9 8 10 11 12 8 10 10 13 16 16 19 17 18 20 16 15
51 53 52 50 49 47 46 44 43 42 40 39 38 38 33 37 33 31 29 28 25 24 18 18 22 19 15 10 7 5 8 6 24 17 13 5 16 6 18 19 16 16 15 16 12
49 49 50 50 49 50 49 47 44 42 39 37 35 38 33 33 31 30 29 28 24 23 17 15 19 14 12 7 6 7 6 10 16 17 14 3 10 14 15 15 12 9 9 12 3
54 52 50 48 48 48 48 49 48 45 41 38 33 36 36 31 29 27 29 26 24 22 16 12 14 11 8 8 2 10 9 14 9 20 15 5 5 12 22 10 8 5 8 3 7
55 56 54 51 49 48 48 47 50 49 45 41 37 34 35 32 31 27 27 26 23 22 15 11 12 10 6 8 4 13 11 6 9 17 7 8 4 14 21 11 12 10 5 4 2
60 58 57 54 52 50 50 49 50 50 48 44 39 34 34 36 33 32 29 25 22 22 15 11 9 8 7 6 3 4 7 3 8 9 10 3 7 12 6 4 7 4 5 5 2
68 64 62 58 56 54 53 52 50 50 51 45 42 38 34 38 37 34 30 26 24 25 16 11 10 9 9 7 4 3 6 8 6 7 5 5 7 7 8 5 5 7 6 2 2
78 72 68 64 61 57 56 55 53 51 51 50 42 41 39 39 42 32 29 27 28 23 19 13 12 11 12 10 9 5 8 7 2 2 13 2 10 4 11 10 6 4 4 4 3
80 76 72 69 66 60 59 56 55 53 50 49 47 43 41 41 35 36 31 32 26 23 23 12 12 10 13 13 11 12 5 4 5 4 4 9 2 13 7 9 13 10 11 8 8
77 76 72 69 69 66 63 59 57 56 54 48 49 42 43 39 42 39 34 31 29 29 24 20 13 10 11 15 12 10 10 6 6 5 8 5 7 10 6 8 12 14 14 13 13
68 70 69 67 67 70 69 64 61 61 53 52 49 41 42 38 43 43 40 35 35 29 22 21 14 11 10 16 12 10 11 5 8 10 4 12 10 9 12 20 21 20 18 17 16
54 60 62 64 69 72 72 70 70 55 57 58 50 45 41 38 41 43 41 42 38 31 26 23 21 12 9 17 17 15 12 10 9 10 8 17 11 8 17 20 21 20 23 22 20
41 45 59 62 67 72 74 73 69 61 60 58 54 49 44 43 38 39 41 38 34 29 28 27 21 17 14 20 22 18 21 14 21 22 18 17 15 14 15 13 14 21 23 25 25
47 45 41 52 60 69 75 81 69 64 62 62 58 49 47 43 41 41 40 39 37 35 30 29 25 21 18 21 23 25 19 22 22 17 17 11 15 13 23 20 12 15 20 25 25
46 47 41 46 48 65 82 72 71 68 64 64 59 48 49 47 41 44 42 38 39 38 36 33 30 27 24 18 19 21 24 21 17 15 15 15 11 17 18 20 22 19 21 22 24
50 50 48 49 53 62 77 70 71 72 66 67 63 53 51 52 42 44 40 39 36 38 39 35 31 32 22 21 20 20 21 22 23 21 24 26 23 18 28 21 26 24 24 24 23
53 53 49 50 44 58 68 75 78 74 70 68 65 55 50 49 51 47 38 41 37 40 42 38 44 35 28 26 20 21 18 20 21 22 25 27 22 21 26 22 19 19 23 24 26
57 58 54 54 50 34 51 73 80 75 73 66 64 58 52 49 51 52 45 45 39 39 35 42 41 37 31 20 21 21 23 23 24 25 22 26 23 17 20 20 21 22 26 23 26
64 59 56 54 51 40 37 61 75 78 74 72 57 59 51 50 52 54 51 40 39 38 43 42 45 39 33 30 21 22 23 23 23 23 23 16 19 15 17 18 24 25 29 23 27
66 59 57 56 50 47 46 40 66 77 75 73 70 63 51 51 52 50 51 47 45 42 41 43 41 41 38 36 31 29 27 24 24 23 23 21 20 20 25 30 27 24 25 26 26
60 60 57 57 51 52 46 34 55 71 77 73 72 56 49 47 51 52 48 43 53 47 45 46 45 43 43 35 34 39 25 27 24 22 23 23 20 17 23 25 23 22 23 27 27

GFSSW_500_spd_072.txt.gz
Wind_Speed
37 36 36 36 36 35 34 33 32 31 29 30 29 29 30 29 31 28 29 28 27 30 33 34 34 33 36 39 27 9 2 6 11 7 15 25 31 17 22 20 18 20 20 16 10
37 37 36 36 36 37 36 35 35 34 30 30 31 30 30 30 33 28 28 27 28 30 32 33 30 32 35 42 25 7 1 14 6 15 18 30 27 20 21 25 20 16 11 9 15
41 41 40 39 39 38 38 36 35 35 35 32 32 30 32 33 34 26 28 28 27 30 31 30 27 30 32 34 18 12 5 14 17 16 26 22 23 14 17 30 24 21 16 14 15
46 45 45 44 43 42 42 40 37 36 35 33 33 32 34 33 35 27 28 29 28 28 28 27 23 26 27 27 12 17 14 8 15 18 25 18 19 13 17 14 18 20 22 19 17
47 46 45 47 45 43 41 40 38 36 35 33 32 33 33 32 34 31 29 28 27 26 26 24 20 24 22 19 10 19 14 14 16 16 15 11 20 19 18 16 14 16 21 21 20
50 49 49 48 48 46 43 41 39 38 36 32 33 32 30 30 34 29 28 26 27 24 24 22 18 22 19 18 11 15 14 12 14 23 18 17 12 14 19 18 16 12 15 18 20
48 48 49 49 47 47 44 41 40 40 38 35 34 35 33 27 33 32 28 26 27 24 22 19 17 20 19 18 14 11 10 8 10 20 24 13 15 21 29 9 16 13 16 17 19
47 46 46 46 46 45 46 45 43 42 42 38 35 35 29 32 32 30 31 27 25 23 22 17 15 17 16 15 13 6 7 18 13 18 18 19 20 24 25 7 13 16 17 15 18
48 46 46 46 46 45 43 43 45 45 45 44 38 35 27 28 32 29 24 26 24 20 20 16 13 15 15 12 6 14 11 12 24 18 19 21 16 15 22 7 11 20 18 16 19
50 50 48 48 45 44 44 43 43 43 44 44 42 39 34 27 29 29 26 24 24 20 18 16 13 14 14 9 7 14 9 13 11 19 18 9 12 20 22 28 28 21 17 9 5
53 53 52 50 48 46 47 47 46 45 42 41 43 40 38 34 29 30 25 25 25 21 18 17 13 11 14 9 7 12 14 4 19 11 13 4 5 10 21 22 9 17 16 9 10
60 56 56 55 52 50 49 49 50 47 44 40 41 41 37 38 33 32 28 26 25 23 21 19 12 9 11 4 8 8 7 7 8 10 7 3 13 13 14 13 11 8 8 8 7
66 64 63 61 59 56 54 52 52 51 49 43 41 41 35 40 36 35 31 26 24 29 24 20 13 10 10 7 8 8 3 6 13 14 9 5 7 11 16 15 14 10 9 7 7
72 71 68 66 65 63 59 56 54 55 52 45 41 41 41 40 39 37 33 28 30 25 25 21 17 11 10 11 13 12 9 8 8 8 8 5 3 12 16 11 11 16 8 10 5
73 74 72 71 69 66 64 62 58 56 54 47 48 43 43 44 37 36 33 34 29 21 31 16 19 14 12 11 16 10 12 7 8 5 6 16 4 14 14 9 18 14 14 6 9
73 72 72 70 69 66 63 64 61 59 57 53 52 48 43 42 41 41 42 36 30 30 35 24 22 19 14 14 16 16 14 12 10 8 4 2 7 15 9 7 12 15 22 13 2
65 66 67 66 64 65 63 64 66 67 56 56 53 49 49 44 41 45 45 43 40 35 31 29 26 22 18 16 16 15 15 13 11 10 4 5 4 13 14 13 16 20 25 20 13
49 53 57 59 60 61 62 67 71 66 59 57 56 54 53 46 40 44 48 43 43 38 29 31 32 23 19 16 16 15 15 16 13 9 11 14 4 6 14 18 17 14 20 24 23
33 28 31 39 44 56 61 70 72 62 58 57 56 55 53 47 45 42 47 45 43 44 36 36 28 26 25 21 22 20 23 13 16 21 17 13 4 14 21 21 17 16 12 19 20
40 40 36 36 34 42 57 68 69 59 61 48 37 56 55 49 45 43 45 47 44 47 38 34 30 31 24 25 27 22 17 22 27 25 18 16 13 20 12 19 18 21 21 17 16
44 42 37 42 43 45 43 58 63 61 64 57 44 50 57 30 42 44 48 45 43 42 43 35 30 30 28 30 26 28 25 24 23 21 19 17 12 14 15 10 17 25 27 25 22
49 48 45 42 45 42 34 22 34 61 65 54 60 45 43 44 33 47 47 49 44 33 45 42 39 32 35 30 26 28 28 28 26 19 20 20 22 23 24 23 23 30 28 31 29
51 49 45 47 46 44 39 33 34 44 61 64 65 53 38 44 46 48 50 47 47 43 39 39 45 35 32 35 37 30 29 22 26 26 28 26 21 18 27 32 24 23 20 20 27
49 49 48 48 42 46 45 41 42 36 52 63 57 54 47 37 48 46 49 47 47 39 45 43 46 48 42 37 22 31 29 26 23 22 20 22 20 15 17 22 26 25 22 18 19
50 43 38 42 41 41 43 43 39 30 47 58 63 62 34 31 48 43 35 53 50 37 48 49 48 47 43 38 30 28 26 30 33 29 27 20 21 13 11 21 26 33 24 28 26
53 47 43 38 39 45 44 39 41 35 29 51 67 54 42 45 34 47 45 45 50 42 46 44 52 46 41 39 36 31 24 26 32 31 26 26 26 21 26 26 27 30 37 38 31
54 51 53 47 43 43 40 43 38 39 32 39 56 64 58 30 36 32 36 49 52 44 49 53 48 42 46 40 37 46 35 31 32 27 25 25 23 20 20 27 29 35 28 26 26

GFSSW_500_spd_075.txt.gz
Wind_Speed
37 35 34 32 32 33 32 32 31 31 31 29 29 28 28 27 31 28 28 27 28 26 26 27 29 27 28 28 29 25 5 5 6 7 14 23 28 29 27 30 35 32 42 25 5
38 36 35 34 33 33 32 30 29 29 28 28 28 27 30 28 29 27 28 28 27 26 26 26 26 25 26 25 28 17 4 6 6 12 19 24 28 34 34 26 27 25 27 14 11
41 40 38 36 35 35 34 33 33 32 32 32 30 29 31 29 30 25 26 27 26 25 27 25 23 22 25 28 31 19 8 7 13 17 20 24 26 30 25 25 23 17 16 14 10
44 43 42 40 39 39 38 38 36 35 35 34 34 30 30 28 29 23 25 25 25 24 23 24 22 20 23 25 28 17 13 11 12 11 17 22 19 18 21 20 20 15 13 12 14
46 44 43 43 41 40 39 39 37 36 36 33 31 31 28 25 25 24 23 24 25 21 21 21 20 18 20 22 22 15 10 16 15 12 16 20 23 19 21 23 31 18 15 11 11
51 46 43 44 44 43 42 41 41 40 40 37 33 32 29 20 32 24 25 24 24 24 20 20 18 16 17 19 19 14 8 7 9 12 19 20 19 11 12 24 36 17 12 13 11
53 48 48 42 40 43 44 42 42 42 41 40 35 34 30 18 33 28 24 23 23 23 22 18 17 14 15 15 14 12 4 4 6 8 19 18 17 18 18 25 35 26 6 13 18
35 37 34 39 37 36 38 38 37 39 40 41 39 36 27 28 32 26 25 22 22 19 19 18 15 12 14 13 9 6 5 5 4 12 18 20 15 13 26 31 22 10 14 11 15
39 38 38 40 40 40 40 39 37 37 39 40 40 38 31 28 33 27 26 23 23 19 21 19 14 11 12 11 9 8 5 10 13 15 16 17 11 21 21 24 23 18 18 9 12
41 41 40 42 42 43 43 42 41 39 41 38 38 38 37 31 30 30 29 25 23 22 21 18 15 10 10 11 8 8 6 10 11 13 13 14 14 15 16 20 19 18 12 9 8
46 45 45 45 46 45 43 43 44 44 40 38 37 37 36 33 31 30 35 30 26 21 22 20 16 9 12 8 12 7 6 7 10 13 12 13 9 3 14 24 21 21 17 13 11
46 46 46 45 46 46 49 48 47 47 44 41 40 36 31 36 32 30 35 33 29 21 27 25 10 13 14 11 13 4 5 7 14 11 9 9 11 10 12 16 15 17 17 15 10
51 50 49 49 49 49 49 50 51 50 48 42 41 40 37 38 35 31 35 33 31 30 27 27 12 17 16 13 10 6 4 11 16 13 11 14 13 6 3 5 14 16 12 11 12
57 56 55 54 53 54 54 52 52 52 51 45 41 41 42 42 40 31 34 34 35 30 26 30 21 19 19 14 10 10 14 11 15 8 6 11 1 9 13 7 7 7 13 11 9
61 61 59 58 56 56 55 54 53 52 52 49 49 44 43 44 43 34 34 37 36 27 33 22 22 18 18 12 13 11 17 10 11 10 7 10 7 6 7 18 5 11 11 13 8
65 65 63 61 59 59 57 56 55 52 54 55 52 51 46 42 45 42 39 38 35 36 37 28 26 26 19 18 15 15 19 13 13 13 10 10 10 9 8 11 6 10 12 8 4
67 66 65 64 58 59 56 56 57 59 55 51 54 53 50 44 42 46 38 41 42 40 38 28 33 29 24 23 20 19 21 17 18 19 10 8 8 6 7 13 13 17 14 10 5
59 58 58 58 56 58 59 58 62 55 55 49 51 56 56 50 45 43 45 43 43 43 40 36 37 31 23 24 22 19 21 21 17 18 18 9 7 5 11 16 16 18 19 15 7
50 49 49 48 45 54 56 61 62 56 54 48 44 36 54 52 52 47 46 44 41 40 42 41 39 27 29 27 25 21 24 14 22 21 18 11 8 16 12 18 22 15 18 19 13
42 42 41 37 35 37 43 47 42 40 49 52 55 44 49 27 37 45 39 42 45 40 39 39 42 38 31 30 31 28 24 23 24 23 22 17 18 19 20 22 30 22 19 15 14
38 38 33 37 40 40 26 15 9 15 38 54 53 48 47 52 32 26 37 38 40 39 39 42 47 44 38 38 33 33 32 32 30 30 28 22 22 23 20 24 29 21 23 27 22
35 34 33 37 38 33 26 30 24 21 26 48 52 53 48 42 37 34 36 41 40 43 44 48 55 45 45 33 34 31 32 35 31 28 28 26 23 21 19 17 21 23 26 31 33
41 39 37 39 36 34 37 36 30 28 26 21 43 51 57 58 44 35 32 39 44 47 47 47 48 48 43 42 39 40 34 35 36 31 28 24 14 23 14 22 29 28 25 24 28
39 43 44 42 38 39 38 35 33 28 28 29 22 57 52 56 49 42 30 30 42 47 47 41 43 54 52 45 41 42 34 32 34 41 31 30 27 28 25 26 28 25 26 22 24
40 43 43 39 38 34 33 30 27 28 30 27 23 64 46 46 45 43 43 37 27 32 43 46 40 52 48 44 39 37 34 33 37 35 34 21 26 25 24 23 30 31 31 28 23
41 44 44 38 34 28 28 30 30 26 28 25 23 48 60 55 39 38 52 28 40 45 45 45 36 50 56 44 45 34 37 29 29 32 33 29 31 26 22 28 31 27 33 32 26
44 45 50 42 38 35 30 25 22 24 26 26 25 27 66 61 52 48 41 38 28 33 38 40 40 47 59 57 45 49 39 37 31 31 32 36 35 32 29 31 33 34 34 36 24

GFSSW_500_spd_078.txt.gz
Wind_Speed
41 40 39 37 36 35 34 32 30 29 29 29 27 26 27 22 25 23 22 23 24 24 23 23 22 23 20 21 22 25 26 13 14 14 10 15 22 27 31 25 22 22 17 15 12
43 41 40 38 37 36 36 33 32 29 28 26 25 23 25 20 24 25 23 23 23 23 23 23 20 20 18 19 21 23 26 13 13 16 12 18 22 28 33 29 20 22 20 15 9
51 45 43 41 39 37 36 34 33 31 29 27 27 26 28 24 23 24 24 23 21 21 20 23 19 18 19 18 20 20 22 14 11 9 7 12 17 25 24 21 19 16 18 18 13
51 53 48 45 43 40 39 37 36 35 34 31 31 28 30 25 23 24 22 22 19 20 17 19 18 16 15 17 20 21 21 14 7 7 12 15 22 22 18 16 16 19 30 19 15
55 55 55 50 45 43 41 39 38 38 36 34 32 28 28 22 24 24 20 21 18 20 17 17 17 17 15 17 18 21 21 14 3 4 6 8 15 18 17 22 21 28 27 16 18
50 50 47 57 52 47 44 42 41 39 37 36 35 31 27 23 30 29 20 23 22 18 20 15 19 17 13 14 15 20 15 8 2 4 8 11 14 21 20 23 22 27 24 13 13
53 51 50 47 54 51 49 45 44 44 41 40 38 36 30 25 31 28 24 26 24 19 19 18 16 17 14 13 15 14 12 4 4 5 8 11 9 14 20 22 19 20 14 11 14
51 47 38 41 48 58 53 50 44 44 42 42 40 38 29 30 32 32 27 25 29 20 18 19 15 18 13 13 17 12 9 4 2 7 11 12 11 13 16 22 20 17 10 16 18
43 38 36 34 30 32 30 30 36 41 34 39 38 37 28 31 32 32 30 24 30 24 20 20 14 17 15 11 16 11 9 7 9 4 8 11 8 6 17 20 16 15 10 11 13
34 37 34 34 36 33 30 33 36 35 38 34 36 34 31 28 31 33 33 30 30 28 22 21 15 17 15 13 16 15 9 11 9 4 7 9 4 5 14 19 15 13 13 12 10
37 36 36 34 36 38 35 37 35 37 36 34 35 34 31 28 29 32 33 35 33 29 21 24 17 10 19 15 16 16 10 12 8 5 10 6 5 9 9 10 13 10 13 16 14
42 40 38 38 40 40 40 41 38 40 39 37 35 32 29 33 33 30 33 35 34 28 29 28 13 13 25 17 16 17 15 12 5 6 10 12 5 7 5 6 10 11 11 11 11
43 40 40 43 43 38 40 39 40 40 40 33 40 38 33 37 36 30 32 33 34 33 31 29 17 24 26 20 17 16 18 10 4 10 11 17 9 4 1 3 7 11 11 7 9
46 45 43 43 42 43 43 41 41 42 43 38 37 41 39 40 41 33 34 33 33 33 30 34 24 27 27 23 21 18 22 8 11 11 10 14 8 5 5 4 5 8 9 6 3
49 48 48 46 48 47 45 44 43 42 44 43 41 40 42 41 41 36 33 39 36 29 34 28 24 25 27 22 25 17 22 16 17 15 13 10 13 11 7 4 6 3 2 4 1
52 52 52 51 51 50 48 48 45 44 42 44 46 43 40 42 42 43 38 38 36 35 37 36 30 34 28 29 27 25 23 21 17 17 14 16 17 9 8 6 3 3 4 4 3
55 55 54 52 55 54 53 52 50 47 42 44 46 52 47 42 43 43 39 39 40 39 38 37 34 33 34 30 30 29 25 24 23 21 13 19 18 13 13 8 3 4 3 7 5
57 58 58 54 56 57 56 56 54 44 44 47 49 50 48 49 45 45 44 44 44 42 41 40 36 35 30 30 29 31 27 24 27 21 19 21 16 23 17 14 5 6 4 3 6
59 61 58 52 54 56 58 59 50 47 49 50 52 50 50 51 52 51 50 46 45 43 43 40 42 33 31 31 32 32 35 20 27 27 25 24 18 24 18 16 11 13 14 9 6
57 57 54 50 53 55 57 53 48 48 47 48 49 52 51 50 54 53 51 50 49 45 41 40 41 35 36 35 35 38 30 29 30 33 31 23 23 23 20 16 19 21 18 14 15
52 54 45 49 50 53 53 44 39 38 42 48 52 53 57 49 51 52 51 50 51 44 40 36 40 40 41 45 41 41 39 36 31 33 31 30 28 24 23 24 27 22 21 19 24
48 49 41 44 47 45 37 28 29 27 20 28 41 49 54 48 46 44 42 48 54 56 50 44 41 44 44 45 44 43 41 36 36 37 31 31 29 26 24 25 24 27 28 27 27
45 39 37 42 44 35 28 31 33 29 28 24 23 18 23 60 57 54 43 43 51 54 54 46 48 48 46 47 48 52 47 43 35 36 39 34 26 26 28 27 26 28 28 25 24
35 33 34 35 35 31 29 32 32 28 26 30 29 26 17 45 60 57 54 41 47 49 54 48 47 51 50 45 47 52 51 47 34 41 40 38 28 24 27 29 25 27 27 28 28
38 31 31 28 27 29 30 31 28 26 26 29 27 24 22 28 66 56 44 42 40 47 49 45 50 47 43 36 42 55 57 49 43 39 40 38 39 34 31 27 28 29 31 36 33
42 40 36 33 30 29 30 28 28 26 26 21 26 23 22 29 55 66 54 46 25 42 51 53 50 45 43 36 45 57 57 55 41 40 38 38 38 31 28 36 36 34 35 33 31
45 40 36 34 33 31 28 26 21 20 27 20 23 26 32 25 55 57 69 65 32 17 43 43 48 45 45 36 46 59 55 56 48 47 37 39 33 29 33 29 29 35 35 32 28

GFSSW_500_spd_081.txt.gz
Wind_Speed
42 42 38 38 40 42 41 39 38 36 35 35 32 31 30 26 26 18 18 22 27 24 23 26 21 21 23 21 18 19 22 24 21 22 19 18 16 18 19 19 21 19 19 21 22
46 44 43 39 39 40 41 40 39 38 37 36 34 31 29 23 22 20 20 24 25 23 22 24 18 20 21 21 19 18 23 25 25 25 16 13 14 16 21 20 19 14 13 20 22
48 48 46 45 44 48 42 42 40 38 36 37 34 31 30 23 21 24 23 24 25 22 22 24 19 18 20 19 18 17 21 25 24 21 14 12 15 17 22 15 13 9 16 21 20
50 51 49 50 50 46 51 45 43 42 39 38 37 33 33 27 23 30 24 24 24 21 22 21 19 18 20 18 16 17 21 20 16 18 18 15 16 15 15 12 15 13 18 20 14
51 49 49 49 50 52 50 51 44 44 42 40 38 36 35 29 23 30 20 23 25 22 23 21 21 20 18 20 17 17 21 21 12 11 11 12 14 13 9 13 14 11 13 7 8
51 52 51 48 49 51 52 53 52 49 44 42 40 38 36 27 32 32 22 24 28 24 25 23 24 18 14 19 17 18 21 19 13 7 7 12 11 5 13 13 14 13 6 5 4
50 49 49 51 50 49 50 48 48 55 54 46 43 42 39 28 36 30 28 27 28 27 27 27 24 19 14 15 20 16 16 19 16 4 5 10 10 8 10 12 11 10 8 4 7
51 49 48 48 48 50 51 51 49 50 53 52 50 45 38 35 39 36 34 30 30 30 27 30 24 20 15 15 19 16 17 16 18 10 5 4 5 5 7 9 12 16 11 8 7
52 47 43 42 43 44 47 44 48 52 52 58 54 50 41 39 40 38 36 32 33 33 28 30 24 21 18 14 17 19 18 18 20 14 8 2 1 1 7 7 11 15 16 10 10
49 49 40 39 37 36 34 35 38 44 53 58 56 47 39 33 36 38 38 35 35 34 32 29 25 20 18 14 16 23 20 15 19 24 14 5 2 5 4 5 9 13 12 12 8
47 39 39 33 35 39 34 30 35 41 48 44 41 38 32 31 32 35 38 38 37 36 33 31 28 14 14 21 22 20 20 16 18 19 17 9 2 4 3 3 5 8 10 9 7
45 39 38 40 38 35 35 32 34 33 30 34 33 30 25 31 35 34 36 35 35 34 34 36 27 17 23 24 21 20 22 17 18 21 20 8 5 1 3 5 2 4 5 8 7
43 43 43 42 39 37 34 34 34 35 34 24 30 31 32 37 33 30 36 34 33 35 34 32 26 27 29 28 22 22 23 22 21 23 22 7 6 1 8 5 5 3 2 4 6
47 45 44 44 40 42 37 36 38 33 36 32 33 35 34 38 40 31 35 31 33 31 30 36 29 29 31 31 24 21 24 27 28 23 21 10 6 6 6 4 6 5 2 3 4
47 46 44 44 43 43 40 39 36 33 38 35 33 36 38 38 41 37 36 37 34 32 31 30 25 28 32 23 32 18 27 28 31 28 16 13 12 12 5 11 13 7 5 4 4
51 50 47 48 46 43 43 41 37 36 38 39 38 36 37 38 40 41 35 37 36 36 37 36 30 35 32 28 35 25 32 30 33 30 17 13 17 11 7 9 11 7 5 5 6
52 52 51 49 49 48 47 43 42 39 36 40 46 43 41 40 39 40 36 37 38 38 39 40 35 33 37 36 36 32 33 34 33 32 13 22 21 9 12 11 12 10 6 5 11
58 56 54 51 51 49 48 46 44 40 38 44 45 48 47 42 40 42 41 41 41 40 41 41 37 33 33 35 32 34 33 37 33 36 22 26 20 12 16 12 12 13 10 8 9
59 57 55 55 53 51 51 48 41 40 45 44 47 50 51 48 45 41 42 43 44 44 42 42 45 36 32 33 38 35 40 33 39 38 32 31 25 20 19 16 16 16 11 12 12
58 58 55 57 54 52 53 47 44 45 48 50 50 49 50 50 50 45 45 46 48 49 50 48 48 38 37 37 39 40 34 39 42 41 36 33 28 26 21 19 17 16 12 8 12
56 57 52 56 55 55 52 47 46 48 46 50 51 49 51 54 56 54 51 51 52 52 53 54 54 46 39 42 44 45 44 43 41 42 40 36 32 26 28 23 21 21 19 15 16
54 55 52 53 55 51 48 48 46 45 47 50 49 49 50 56 60 60 59 51 52 54 58 56 56 58 47 43 46 47 45 44 45 47 40 37 30 32 31 27 25 24 22 21 20
52 50 51 49 53 51 47 44 45 44 44 43 40 41 42 50 62 65 61 53 51 54 58 57 61 58 53 50 54 56 54 52 48 46 45 40 30 32 35 34 28 27 28 26 27
51 51 50 50 46 46 44 40 39 37 35 35 33 30 27 21 23 54 63 52 46 53 55 55 60 63 61 54 53 54 55 53 50 50 47 44 40 33 33 33 33 29 30 27 27
52 50 45 46 38 37 37 33 35 31 29 29 34 31 32 28 21 17 55 59 49 51 50 49 46 60 63 58 51 52 52 54 52 48 51 43 45 37 35 30 32 27 28 30 30
48 45 40 36 33 33 33 33 33 28 27 27 33 29 30 28 26 23 32 63 57 47 46 45 53 54 59 61 56 52 55 51 51 52 53 52 48 38 39 33 32 28 29 35 33
39 33 35 37 34 34 32 27 25 28 29 31 33 27 32 32 32 32 31 40 63 67 52 41 50 55 60 57 57 53 50 54 57 54 52 54 50 38 41 44 39 38 38 36 37

GFSSW_500_spd_084.txt.gz
Wind_Speed
50 47 48 47 46 42 39 37 36 36 38 36 36 35 36 37 36 33 28 27 26 23 22 24 27 23 26 25 23 21 21 23 27 30 26 24 22 19 18 17 14 16 15 17 16
52 53 50 49 48 47 44 39 39 36 35 38 37 38 37 36 36 35 27 26 26 24 23 23 24 24 27 27 21 20 21 21 25 30 26 16 23 18 19 13 11 15 16 17 21
52 52 51 50 51 51 47 44 42 43 40 36 36 38 38 35 34 33 31 26 25 25 25 23 22 22 26 27 21 17 20 21 25 32 30 19 19 20 20 14 15 17 21 23 24
54 55 54 53 50 51 53 49 46 45 45 45 38 38 39 38 34 35 34 28 28 28 24 23 22 22 26 28 22 15 20 22 22 28 30 23 22 20 14 14 17 21 20 24 18
57 58 57 55 52 51 51 53 50 47 45 45 45 38 39 38 31 40 35 33 31 28 25 25 24 23 24 26 24 17 18 22 22 23 24 18 16 8 10 15 21 23 20 12 9
60 56 57 55 53 54 53 52 51 49 47 45 43 42 39 38 37 41 36 31 34 31 29 27 28 25 21 25 26 20 19 21 22 21 23 18 11 6 11 14 16 16 13 11 11
59 55 52 53 54 53 54 54 52 49 48 45 45 45 47 39 39 40 40 36 35 34 31 32 31 25 20 24 26 22 20 22 22 20 24 19 12 6 8 12 14 14 9 10 11
55 53 50 52 53 52 51 53 53 50 48 45 44 45 42 46 44 42 43 38 35 37 37 36 34 25 21 23 23 23 22 24 21 20 21 17 13 9 6 11 14 12 12 8 10
56 54 55 52 54 54 52 51 51 50 48 49 48 46 44 45 49 45 43 41 41 40 40 41 35 27 22 23 21 23 23 25 23 20 20 18 13 12 7 9 8 10 13 13 14
57 58 56 53 51 53 50 49 48 50 49 48 48 48 46 44 43 45 46 45 43 43 45 42 35 30 21 20 16 26 25 24 22 24 23 19 12 16 8 11 5 7 11 12 9
55 57 54 52 48 49 46 47 44 47 44 44 44 42 43 40 37 41 44 48 44 44 43 41 39 26 18 21 26 31 23 23 18 25 25 20 11 16 9 7 5 7 7 9 9
57 55 48 46 42 41 40 36 43 45 39 38 36 33 32 35 45 42 39 41 40 39 41 45 40 23 26 26 29 30 24 21 21 23 23 18 13 12 13 7 4 7 7 7 6
53 47 45 41 44 40 40 38 38 38 42 29 33 24 30 40 36 33 36 36 36 37 37 42 36 31 31 29 31 30 22 25 24 28 27 20 15 17 18 11 6 7 7 8 4
53 47 47 46 43 41 44 41 38 40 44 33 32 35 31 37 39 34 39 35 33 34 33 38 35 31 34 33 30 30 22 27 28 32 29 22 13 16 15 10 8 6 9 9 6
52 53 53 48 44 45 45 42 41 34 38 39 36 36 35 33 34 32 37 39 33 28 31 33 26 29 35 26 32 25 30 31 31 33 29 20 22 16 17 11 12 13 12 11 9
55 54 49 47 47 46 46 45 42 38 40 38 33 33 32 32 35 33 33 37 36 35 35 35 31 32 34 31 35 30 34 35 32 33 29 17 24 14 13 13 12 9 11 11 10
60 56 52 50 50 47 48 47 44 43 41 40 40 39 36 33 31 30 28 31 37 37 36 38 34 32 34 34 37 34 34 38 34 34 28 23 24 17 15 11 12 8 10 11 7
64 60 55 51 54 51 51 50 48 43 44 42 42 43 38 34 35 34 32 31 31 34 39 40 38 35 34 33 34 36 37 39 36 33 33 34 26 13 26 14 14 11 11 13 13
66 62 58 57 55 52 54 51 46 44 46 44 45 45 40 37 35 35 35 34 36 36 37 40 43 36 37 34 35 38 40 35 36 37 38 38 29 20 25 17 19 17 13 15 14
63 63 59 59 58 58 54 48 47 47 46 45 43 44 42 39 39 38 39 39 40 41 43 41 43 43 41 38 38 41 39 39 43 43 41 40 33 23 24 27 20 21 18 17 16
58 61 57 58 58 58 53 49 50 49 48 46 44 44 43 44 46 45 45 45 45 45 47 48 47 45 44 43 42 43 44 43 43 43 44 40 36 23 27 29 27 23 23 24 18
54 56 55 55 57 55 53 53 53 50 49 49 48 46 45 47 49 50 50 49 50 49 49 52 52 52 48 45 46 48 48 45 47 46 43 41 39 26 24 32 32 31 23 23 21
51 51 53 54 54 54 54 52 51 50 49 49 48 47 47 48 51 53 54 54 53 53 55 54 56 55 53 46 48 51 53 51 51 49 49 49 46 29 24 30 32 33 27 25 24
50 52 53 52 52 52 51 51 49 48 50 50 49 48 49 51 52 54 56 57 57 56 57 58 58 60 60 56 47 54 50 54 54 55 52 49 46 35 29 30 32 34 32 30 28
50 50 49 50 46 46 46 47 46 47 48 49 47 45 41 45 48 50 49 48 55 60 58 58 58 59 62 62 54 56 57 55 58 57 56 51 48 39 35 29 29 31 33 32 29
47 43 43 45 44 45 45 45 43 41 40 38 37 29 35 42 38 30 32 37 45 54 66 64 57 57 60 57 57 55 58 57 59 59 57 54 52 46 35 35 35 35 35 33 30
41 40 43 42 44 45 41 38 36 33 33 28 29 30 35 30 36 33 36 33 29 35 46 62 56 45 49 49 52 47 55 60 59 62 59 57 54 53 42 39 39 38 37 36 34

GFSSW_500_spd_087.txt.gz
Wind_Speed
47 46 46 44 44 43 44 45 44 43 40 39 36 35 34 34 33 32 31 33 36 32 31 30 25 24 22 23 21 24 22 21 23 25 25 27 23 17 14 19 24 24 21 20 21
51 50 48 47 44 43 42 44 44 46 45 41 38 35 34 34 34 35 34 34 34 33 31 29 27 25 24 22 19 21 20 20 23 25 24 23 20 19 17 21 26 25 23 22 24
51 51 50 49 47 45 44 43 44 45 47 44 43 40 37 33 33 36 36 35 32 32 32 31 29 26 25 21 16 19 19 19 27 24 25 24 17 17 19 25 26 23 20 24 25
54 54 54 54 52 51 48 47 45 46 45 47 46 43 41 36 35 35 36 35 32 32 33 33 32 28 25 24 17 19 20 21 24 27 26 25 17 14 19 22 22 22 22 25 25
56 55 57 57 55 53 54 50 49 50 47 46 48 45 46 43 34 37 37 36 35 34 35 37 35 31 26 25 21 18 20 21 23 26 25 20 14 13 19 20 19 19 20 21 17
59 61 60 60 60 57 55 53 50 49 49 47 48 47 46 43 41 39 40 38 38 38 38 36 36 35 26 25 24 20 20 21 24 24 23 16 9 12 19 21 20 18 20 19 17
62 63 63 62 60 58 55 51 51 46 48 49 48 47 46 41 44 41 41 42 41 40 38 38 37 35 28 25 25 23 19 21 26 23 23 17 8 10 16 20 20 18 15 16 18
62 61 61 61 56 53 50 48 47 46 47 48 49 49 47 42 44 45 45 42 44 42 41 41 40 35 29 29 25 25 21 21 28 21 21 19 10 11 15 21 18 16 12 14 14
57 57 57 56 55 53 51 50 48 46 46 47 48 47 46 45 42 43 44 48 45 42 42 44 43 37 32 29 28 23 22 24 28 22 22 22 11 12 14 22 21 15 11 12 15
55 52 52 53 53 53 53 53 50 48 47 48 48 47 44 42 43 44 44 46 47 46 46 46 44 40 36 29 25 24 26 26 24 27 24 22 13 14 13 19 24 19 10 10 12
52 49 50 48 51 51 51 55 51 49 49 46 46 44 43 37 40 43 45 46 49 51 49 45 48 44 33 31 32 32 30 23 21 31 26 21 13 13 11 16 23 20 14 9 12
53 52 48 47 48 49 51 49 55 50 47 46 45 45 33 34 38 37 42 41 44 41 50 51 51 37 33 35 35 32 31 21 20 29 28 23 13 15 11 15 23 21 19 8 11
57 56 53 48 46 48 50 52 50 46 47 39 43 39 33 36 32 33 39 44 38 40 42 46 43 39 35 36 37 32 30 24 25 30 29 23 14 14 16 16 21 24 21 11 8
61 58 57 52 46 46 48 46 40 41 42 36 38 43 39 36 32 33 43 36 44 37 36 42 36 34 35 36 37 36 26 30 29 32 29 24 10 10 16 18 19 25 21 13 8
61 61 60 53 47 45 44 44 43 35 44 38 37 39 36 33 34 30 38 39 37 31 30 37 31 30 30 31 35 29 33 34 35 35 30 22 16 7 14 16 18 22 22 16 10
60 60 60 57 51 46 43 46 40 38 40 37 36 33 34 35 32 31 30 33 33 35 34 33 29 31 31 31 33 34 33 37 35 37 29 19 15 4 15 11 21 21 21 19 12
61 61 61 60 55 51 49 50 48 43 42 40 39 37 28 26 24 23 24 29 30 32 34 35 33 31 30 31 34 36 33 37 40 40 25 24 24 11 12 14 18 19 14 14 10
60 60 60 61 57 53 52 52 52 48 44 42 42 39 35 30 31 28 27 27 29 27 30 34 37 37 34 32 31 33 35 39 40 37 31 33 27 12 14 18 16 19 15 13 9
53 54 56 60 59 56 56 54 51 48 45 44 44 42 39 36 32 32 29 30 27 31 29 34 34 38 38 37 36 34 38 32 37 40 39 37 28 16 15 17 17 22 21 17 16
47 50 53 56 57 57 58 54 52 52 51 43 44 45 42 39 36 35 34 33 34 33 32 35 33 34 35 39 40 39 38 38 42 41 40 37 32 22 15 15 18 22 24 21 20
46 47 46 51 54 57 58 56 52 48 45 50 45 43 43 41 39 37 36 35 36 36 38 38 39 34 35 36 40 42 43 42 43 42 41 40 38 24 19 22 20 25 26 27 25
43 42 40 47 51 53 54 55 54 52 49 46 46 45 45 44 42 40 39 38 38 38 39 40 42 41 39 36 36 42 44 45 48 45 45 42 41 30 21 17 23 21 30 27 28
38 37 40 45 49 49 52 51 51 50 52 51 48 46 45 44 44 42 42 42 41 41 42 42 42 42 42 39 42 40 43 48 50 50 46 46 46 33 25 20 23 24 26 30 28
37 38 40 42 44 46 46 45 46 45 46 50 49 47 47 46 46 45 43 44 44 44 44 45 44 46 45 45 42 47 48 49 50 53 51 49 47 45 29 27 24 27 30 31 25
40 35 35 39 39 39 42 43 42 43 44 46 47 46 46 45 45 45 46 45 45 45 47 48 48 50 52 52 51 47 48 49 51 51 54 51 49 49 36 32 23 25 29 33 30
37 32 34 34 36 39 40 41 41 41 43 41 42 43 45 46 45 46 46 44 46 48 50 51 53 56 57 56 55 58 53 50 54 55 58 57 54 54 46 34 32 28 30 32 33
32 32 35 34 35 39 39 37 37 40 40 41 39 43 43 41 46 45 45 46 45 44 43 47 46 48 55 53 55 58 55 54 53 55 58 59 56 51 50 43 40 34 33 36 37

GFSSW_500_spd_093.txt.gz
Wind_Speed
44 45 45 45 44 44 44 43 43 42 41 40 38 37 36 36 35 32 30 31 34 32 34 33 33 31 31 28 25 22 24 25 24 24 25 24 24 26 28 26 24 28 23 25 26
44 44 45 44 44 46 45 45 44 43 43 41 38 37 36 37 36 36 33 34 34 34 34 34 35 34 32 31 25 22 25 24 27 24 24 27 24 26 29 26 24 24 25 20 26
49 47 47 46 46 48 47 47 46 47 44 43 42 40 40 38 35 40 36 35 36 36 35 35 37 37 34 32 27 24 23 27 28 27 25 24 25 26 27 25 23 21 20 24 27
51 50 50 49 49 50 51 49 50 47 46 46 45 45 46 44 40 37 36 39 39 38 37 37 37 39 35 33 30 26 25 28 29 30 26 23 23 24 26 24 21 20 19 21 27
56 55 54 52 51 51 52 49 49 48 48 48 48 47 47 46 40 43 41 39 41 40 39 38 37 39 36 35 33 29 27 28 30 31 30 25 24 22 26 24 23 20 19 20 22
57 58 58 55 53 53 52 50 51 50 51 52 51 50 49 50 46 44 42 41 41 43 42 42 40 41 42 36 36 31 30 27 28 31 32 29 24 25 23 23 23 22 19 18 20
59 57 59 58 57 56 56 56 56 56 55 56 55 55 53 46 48 43 43 44 43 44 46 44 43 44 40 39 39 34 32 28 27 29 31 33 21 26 23 22 21 23 18 17 20
60 58 59 60 59 58 57 57 57 56 55 56 57 59 57 51 49 45 44 45 45 44 46 47 46 44 44 42 41 36 36 29 25 32 30 31 21 24 23 21 21 22 19 14 16
55 56 55 58 58 57 55 56 55 55 53 56 57 58 57 50 47 43 43 44 48 48 46 46 47 46 46 47 43 39 35 30 28 33 32 30 22 17 25 24 23 21 20 12 14
54 53 52 51 53 52 50 48 50 51 52 53 56 55 57 55 45 42 44 45 46 48 49 48 47 47 45 49 46 32 33 34 30 25 38 29 23 21 23 28 22 20 22 13 12
55 55 53 51 50 49 46 45 47 46 46 46 48 47 44 47 45 45 45 45 45 46 47 47 47 46 46 45 41 35 37 38 29 29 42 33 27 27 23 25 28 19 21 15 12
60 58 57 54 54 52 50 48 46 47 47 41 41 44 41 45 46 46 46 45 43 42 43 47 47 45 43 44 46 42 41 42 35 32 44 35 31 27 23 24 27 22 21 18 12
65 63 60 60 58 56 55 52 51 49 48 43 40 41 41 43 44 45 48 47 44 41 42 44 43 43 45 42 42 46 44 43 35 35 47 41 33 26 24 25 29 25 20 21 13
66 67 65 63 63 60 58 56 55 53 52 48 45 42 41 41 43 47 46 48 44 40 39 43 41 45 43 43 40 42 41 47 44 43 44 38 35 27 23 20 29 25 19 20 14
62 62 64 65 64 61 58 58 56 55 52 51 48 44 41 41 38 42 42 49 45 38 39 38 39 40 40 33 35 37 35 44 40 45 45 41 36 24 25 23 28 25 18 20 14
61 58 57 58 59 59 58 59 59 54 54 54 50 46 41 39 35 38 37 40 37 36 37 37 41 40 40 33 33 34 33 38 41 41 47 44 33 26 17 17 21 25 18 18 15
59 55 54 51 53 52 53 54 53 54 53 49 52 47 42 40 35 35 29 37 36 36 38 33 40 35 31 35 33 35 31 35 36 35 43 33 35 26 18 17 15 24 17 15 16
55 51 49 47 46 46 47 47 50 51 50 51 51 48 41 39 35 24 30 25 33 33 30 32 36 36 30 32 32 29 31 32 31 22 22 24 37 31 23 22 24 23 19 16 18
49 47 45 43 43 43 44 46 44 43 47 53 49 45 43 41 37 28 22 25 25 26 30 31 31 36 35 36 35 33 37 31 31 19 22 17 19 24 27 19 20 23 23 17 19
42 42 40 42 42 43 43 40 41 46 49 49 45 43 36 40 35 36 33 35 32 26 26 27 25 25 30 34 40 36 34 34 34 35 34 30 26 19 22 22 22 21 22 20 20
39 40 39 41 43 43 40 39 41 45 45 45 43 47 45 46 37 37 32 32 32 34 30 26 23 26 25 26 31 36 41 39 35 33 24 17 12 17 28 22 24 20 24 23 21
36 36 37 38 40 39 37 38 40 41 40 41 44 45 44 46 39 38 38 41 38 33 34 31 29 29 26 26 26 28 34 36 39 33 26 28 29 14 26 23 27 27 23 23 22
33 33 33 36 36 36 36 36 38 36 37 38 43 47 47 45 44 41 41 38 38 37 35 31 34 29 28 29 28 29 31 31 38 39 35 27 24 31 31 18 14 17 22 26 26
32 31 31 33 33 33 33 33 33 33 34 40 44 49 45 45 47 46 44 39 38 40 34 32 32 30 25 27 36 35 29 34 33 32 34 36 35 33 32 27 26 19 22 26 27
31 29 30 32 33 31 29 26 26 27 29 35 40 42 41 43 43 43 41 40 36 39 33 33 35 31 28 31 32 31 33 36 35 35 36 33 35 31 33 34 31 29 30 28 31
30 29 30 31 30 28 26 23 18 21 26 25 33 35 37 39 40 38 34 37 37 39 34 31 30 30 30 28 30 32 32 34 36 39 41 42 40 40 39 35 30 28 32 32 31
29 30 31 24 28 26 20 21 22 21 23 28 20 31 33 35 39 40 37 38 37 34 31 30 31 29 28 28 32 31 27 30 32 34 37 39 39 41 41 38 36 32 33 31 33

GFSSW_500_spd_096.txt.gz
Wind_Speed
47 47 46 44 44 44 44 44 44 44 43 42 43 42 41 39 35 35 32 33 32 33 29 31 30 32 32 30 29 27 27 20 21 9 18 28 32 28 27 29 31 32 31 28 26
47 47 49 49 45 44 44 44 44 43 44 43 42 42 41 40 35 34 35 30 33 34 33 33 32 32 33 33 30 28 29 21 24 13 27 27 29 31 30 29 31 31 30 30 28
48 47 48 48 48 51 47 46 46 46 45 44 43 43 43 42 37 39 32 34 33 34 34 35 35 34 34 36 31 29 27 27 27 28 26 24 29 29 28 27 31 28 28 28 30
53 51 50 49 49 48 49 51 52 50 49 50 50 48 46 43 42 39 37 35 36 34 36 37 37 37 36 37 34 35 25 27 30 31 28 26 29 27 29 26 30 27 30 26 25
54 55 55 54 54 53 53 53 53 52 50 51 53 52 49 46 39 46 36 38 36 36 36 38 38 38 40 37 38 38 27 29 33 33 30 28 27 29 26 28 28 27 29 26 25
57 59 58 58 58 56 55 54 54 53 51 50 50 50 48 46 44 42 42 40 40 38 37 38 40 40 43 42 40 37 37 31 33 32 32 30 29 30 22 29 27 29 27 26 24
59 58 57 58 59 57 58 55 54 52 53 53 52 51 49 45 46 44 43 43 40 40 39 38 41 44 44 44 40 42 40 34 33 31 32 31 31 26 23 28 26 26 27 26 26
55 56 58 54 55 56 55 56 54 51 51 52 53 54 51 47 45 46 45 43 43 41 38 39 43 45 46 45 47 45 41 39 31 33 32 33 32 24 28 24 25 26 24 23 22
53 53 54 53 54 53 50 50 52 51 50 50 49 52 54 49 50 45 47 44 42 41 38 40 45 46 45 49 49 48 44 39 32 29 31 34 34 23 21 23 26 26 24 21 18
58 56 55 55 55 53 51 50 50 50 49 45 46 51 52 51 48 44 43 42 41 42 40 41 44 45 50 52 51 46 43 39 37 28 31 35 35 25 24 28 24 28 22 23 20
64 61 60 59 59 58 54 52 52 51 49 43 43 40 42 45 50 43 36 39 40 44 40 40 43 47 50 51 47 46 44 42 36 27 19 30 40 30 27 24 22 24 34 21 23
67 67 66 65 64 62 59 57 54 54 52 46 39 44 36 40 48 35 39 43 38 39 41 45 44 45 50 50 49 47 44 42 41 40 37 36 40 37 30 27 24 23 24 27 25
66 66 63 62 66 66 63 61 57 56 55 50 44 41 41 42 40 36 39 38 36 38 43 45 42 46 47 48 48 46 45 41 43 44 41 42 46 39 29 29 25 23 29 24 27
72 69 66 61 60 58 62 62 60 59 57 54 51 45 42 41 42 38 35 36 38 39 43 45 44 45 45 48 42 45 39 38 39 44 46 36 48 41 31 30 23 21 22 22 21
79 78 75 71 64 57 57 55 57 57 54 49 56 49 44 42 42 42 37 37 36 38 42 42 44 44 46 45 38 40 31 33 36 37 45 46 50 43 28 25 21 23 27 22 17
84 81 77 72 69 60 54 50 49 50 54 49 53 52 47 42 40 40 35 35 35 39 43 45 45 42 42 40 38 33 27 35 33 32 41 37 48 44 32 19 15 20 27 17 19
73 71 67 60 55 54 49 47 46 48 43 39 37 48 49 46 44 39 35 35 34 36 41 41 46 44 43 39 32 34 34 32 31 36 38 31 36 41 24 20 11 21 23 16 15
65 60 54 48 46 45 44 44 46 41 38 32 27 31 39 43 43 38 36 37 34 35 38 43 40 37 43 35 29 34 33 30 31 27 27 27 34 26 21 27 23 28 22 20 14
39 38 38 41 43 42 44 45 38 33 35 35 35 32 39 37 41 37 34 37 27 37 38 39 39 33 36 40 32 29 33 30 32 22 17 19 20 23 19 23 30 24 24 28 18
28 32 34 37 40 42 44 36 34 35 42 43 41 36 25 19 32 33 30 31 37 30 27 32 13 23 36 30 32 34 23 27 30 35 33 17 16 20 17 30 25 21 24 24 21
23 26 29 31 36 39 37 33 33 34 41 36 36 37 32 29 29 23 28 30 41 34 24 24 23 14 22 28 26 32 40 34 26 29 32 33 28 19 18 20 25 24 16 26 24
19 21 22 26 30 33 32 32 33 35 36 37 36 35 35 34 41 34 36 39 43 38 37 35 27 25 10 21 27 29 28 35 38 31 28 25 22 22 30 28 27 23 21 22 20
20 21 19 21 22 26 28 29 31 33 34 38 37 35 33 39 42 37 43 47 44 38 41 32 30 29 28 22 16 21 18 22 32 35 36 27 23 23 21 20 21 27 29 27 21
21 20 21 23 23 21 20 25 28 31 32 36 37 37 37 44 47 49 44 46 42 43 40 37 33 30 25 25 31 28 28 30 28 27 30 39 31 28 28 17 18 19 19 24 21
24 21 18 19 23 22 22 22 17 23 29 33 35 36 38 40 47 49 46 49 45 44 42 41 39 32 29 30 29 29 29 27 28 29 30 24 33 40 28 31 24 27 26 23 23
22 22 25 23 20 18 20 23 21 17 17 22 28 29 33 48 46 51 48 48 48 46 44 38 42 34 31 31 29 28 26 27 31 35 36 42 32 30 29 27 26 24 36 30 31
18 21 25 21 16 20 15 15 20 21 20 15 16 12 20 20 32 43 47 52 45 46 47 41 37 31 31 28 27 26 23 27 27 30 34 35 32 35 34 33 33 30 30 37 40

GFSSW_500_spd_099.txt.gz
Wind_Speed
42 45 43 44 44 43 45 46 42 44 44 43 45 43 43 40 37 39 37 36 33 31 28 28 29 30 28 27 30 32 33 24 18 21 23 24 25 34 29 24 25 29 30 32 33
45 46 47 47 47 48 47 46 46 45 43 44 44 45 43 42 39 37 39 35 33 32 31 28 28 32 30 29 30 32 33 22 23 26 29 28 30 25 32 26 27 31 33 34 36
48 47 48 49 49 49 50 48 47 48 47 46 44 43 42 42 38 36 35 37 36 34 33 31 30 31 31 31 30 33 32 27 26 27 30 29 25 26 29 23 25 29 30 31 34
51 50 50 51 51 52 52 50 51 49 49 49 52 51 46 47 45 41 40 38 38 37 36 34 33 32 31 31 31 36 33 30 28 30 33 31 27 28 29 24 25 26 27 28 31
53 52 54 54 54 53 52 53 53 52 51 51 50 50 50 48 45 49 44 39 37 38 38 35 35 33 34 31 34 37 35 34 31 32 33 32 28 30 29 27 28 25 26 27 28
54 55 55 55 55 56 56 54 53 53 53 54 52 53 53 50 48 47 47 42 41 38 38 37 35 36 36 35 36 34 39 37 35 33 31 33 30 33 25 27 28 27 24 26 28
53 54 53 54 55 55 56 56 53 53 52 52 52 50 51 45 48 45 45 43 42 41 38 36 34 38 37 38 37 38 40 41 35 31 33 30 38 30 28 29 27 27 23 25 25
47 47 49 49 50 50 51 52 51 52 50 51 52 53 50 44 47 44 46 41 41 40 39 37 35 37 40 38 38 39 41 41 33 33 30 30 40 28 30 34 29 29 22 22 20
50 50 51 52 52 52 50 49 49 53 50 51 50 53 50 45 47 44 42 40 39 39 36 36 35 37 38 37 39 40 39 38 36 33 31 34 42 34 29 37 30 26 21 22 22
55 56 57 57 58 58 56 53 51 52 51 48 46 50 49 46 41 42 42 39 38 36 37 37 35 36 39 42 41 37 39 40 40 33 32 35 35 31 27 31 27 26 24 25 22
61 61 62 62 62 62 62 61 60 57 56 50 47 44 46 46 48 40 37 38 38 37 34 34 41 44 37 36 34 39 42 42 43 40 39 41 41 32 28 36 28 25 25 24 27
61 63 63 63 63 65 67 66 67 65 62 56 49 49 40 44 50 34 37 38 34 34 33 37 42 32 33 35 39 42 46 46 45 42 38 44 44 38 36 37 26 22 23 23 29
63 64 64 63 61 62 63 64 66 65 68 63 55 55 45 47 47 32 38 34 34 32 34 34 32 31 35 37 41 42 45 47 46 43 46 46 44 45 44 37 26 22 21 25 29
63 64 66 66 67 68 70 69 66 64 67 64 63 57 52 48 48 42 35 37 37 34 30 33 35 33 36 38 41 42 42 42 43 47 50 37 47 46 49 42 37 29 26 26 26
67 67 67 69 68 72 76 73 70 68 67 59 59 60 54 50 48 42 39 40 36 33 35 34 32 35 37 39 41 44 41 39 43 47 48 42 45 44 41 44 31 20 20 21 25
70 70 72 74 75 71 67 62 57 57 61 53 50 51 52 45 43 45 39 37 35 36 36 35 33 35 37 39 39 39 41 41 35 44 46 38 36 45 35 38 32 19 20 19 21
74 74 77 79 69 66 55 50 48 53 47 40 34 36 45 45 41 41 40 36 34 33 32 31 33 33 36 40 42 43 37 41 38 44 43 31 32 37 24 30 34 24 23 16 20
72 78 75 73 62 49 41 44 49 41 31 21 32 25 26 19 27 33 37 37 32 32 32 35 38 36 38 42 43 44 38 41 40 39 30 20 32 19 13 23 20 21 26 26 23
70 67 57 38 27 31 41 46 37 26 29 40 36 32 32 22 23 20 25 30 32 31 34 34 36 36 33 36 44 42 43 37 29 28 25 23 22 19 21 20 30 19 24 28 23
54 47 18 12 16 24 32 35 28 30 35 38 35 37 38 39 36 27 26 24 29 30 32 32 31 30 31 36 39 33 31 32 32 31 34 25 17 19 26 30 34 26 23 29 25
35 10 10 8 12 17 24 27 28 27 31 34 38 37 35 42 36 28 33 30 29 35 33 29 32 27 31 31 36 34 39 37 33 31 33 31 27 19 29 29 33 30 23 22 23
18 8 6 7 11 18 19 21 25 27 32 35 35 44 42 37 34 38 26 32 37 40 40 32 27 30 27 29 27 27 35 34 29 29 29 26 30 31 14 15 30 28 32 31 29
17 10 10 9 16 13 17 18 21 23 26 33 38 39 43 43 39 38 31 33 40 24 35 33 27 33 30 24 27 28 24 25 44 39 31 27 29 33 27 18 27 33 34 31 34
15 12 12 14 10 13 12 8 14 19 22 28 35 35 36 34 41 44 32 27 44 36 24 36 34 34 36 29 20 31 33 29 30 34 35 37 25 28 28 24 26 22 24 25 20
16 13 13 14 13 15 16 12 2 12 15 23 27 28 29 32 38 43 43 43 43 45 33 30 32 39 33 34 29 23 34 31 32 27 27 30 37 37 27 22 15 20 25 22 24
18 17 18 19 14 12 14 13 17 13 13 11 20 25 27 28 31 39 47 51 51 48 47 42 37 39 35 27 29 26 25 29 26 19 25 23 23 35 42 33 28 28 29 25 23
14 17 20 19 23 21 17 10 10 21 21 16 11 16 22 27 31 35 39 48 49 54 44 41 39 37 37 31 27 32 25 25 28 31 31 28 27 31 28 36 41 34 30 32 32

GFSSW_500_spd_102.txt.gz
Wind_Speed
43 45 45 44 44 44 44 43 44 43 41 40 39 38 38 39 39 38 36 37 38 36 35 34 31 30 30 28 27 29 30 18 20 23 28 32 32 32 31 28 22 21 26 28 26
45 45 46 47 47 46 47 48 46 47 46 43 42 41 41 39 38 40 41 39 39 38 36 35 35 33 30 29 28 29 31 19 23 26 29 33 32 30 32 29 23 25 28 31 28
50 50 50 49 49 48 48 49 49 49 47 46 45 41 43 43 39 37 38 39 38 38 37 36 36 35 33 30 29 30 31 24 26 25 32 33 33 33 29 23 25 26 32 34 30
49 51 52 54 53 52 53 52 51 51 51 50 48 46 44 44 45 42 43 40 39 39 38 40 39 38 35 35 31 33 31 27 27 29 31 31 33 34 31 22 23 26 32 34 30
49 48 50 51 53 55 54 54 55 54 53 54 54 52 49 48 42 46 43 44 41 42 42 41 40 41 38 35 35 34 28 31 30 31 27 33 34 35 30 26 25 28 30 33 28
47 47 47 48 49 51 51 52 54 55 55 56 56 55 54 52 48 49 47 46 44 45 45 44 40 42 43 40 39 33 32 31 32 31 26 29 30 37 25 26 29 29 29 31 29
42 42 44 46 47 47 49 49 48 52 53 53 55 54 54 46 50 50 47 46 45 44 42 42 43 45 43 42 41 38 31 29 29 30 29 28 32 32 29 32 35 31 29 29 29
38 39 41 43 45 46 47 46 47 49 48 47 50 51 52 44 48 46 49 45 44 45 45 45 45 45 45 43 41 39 34 29 29 29 29 30 29 28 26 34 35 33 27 30 29
41 43 44 46 47 49 49 50 50 50 50 50 49 49 46 43 43 43 44 44 43 44 46 45 47 46 45 43 42 40 36 29 28 28 30 34 30 32 31 37 39 36 27 27 27
45 46 48 49 51 55 53 54 55 54 52 53 52 52 48 45 41 39 39 43 45 43 44 46 45 45 44 43 41 37 32 31 32 31 35 37 34 36 41 40 42 42 29 23 25
47 49 51 54 56 58 59 60 62 62 58 54 55 54 50 50 46 42 43 41 40 41 41 44 46 47 43 38 37 37 36 35 34 35 37 38 36 37 40 42 44 44 35 19 25
50 53 54 57 58 59 61 64 65 67 65 60 57 57 50 47 52 43 39 39 39 39 41 43 46 42 39 41 38 36 36 34 35 36 39 39 38 40 40 43 45 41 33 25 28
54 56 58 58 59 60 60 62 65 68 72 66 59 61 54 50 55 47 44 42 41 42 40 39 37 36 39 39 39 38 37 34 36 36 39 43 43 42 40 42 43 37 24 29 29
58 60 62 62 63 63 64 63 65 68 73 67 68 63 61 55 56 53 43 47 44 40 38 41 38 37 37 36 38 34 37 38 38 39 41 44 45 42 41 44 44 37 34 30 31
61 63 64 63 62 65 66 65 64 66 74 60 60 62 61 54 48 50 50 50 48 44 42 42 38 35 35 33 37 33 37 38 38 40 42 44 47 42 36 40 44 39 41 33 38
60 62 62 64 64 69 66 67 71 73 75 62 53 53 50 45 39 42 46 50 48 47 45 45 41 39 38 38 39 38 38 39 41 43 45 44 41 36 34 33 37 41 43 32 38
63 65 68 69 70 74 72 76 71 69 59 45 41 42 41 35 33 34 40 46 47 48 48 42 39 36 37 37 36 36 39 41 43 44 42 37 38 34 34 30 36 38 37 36 28
65 68 73 75 77 76 67 63 42 41 31 23 39 41 39 35 31 33 40 46 43 42 43 42 41 40 39 39 36 32 35 40 40 38 32 31 38 31 30 27 28 31 31 34 29
67 72 74 61 52 52 40 25 24 15 22 35 32 24 30 34 35 34 35 40 40 40 42 41 42 39 37 35 34 34 40 38 36 38 35 35 33 29 22 19 22 26 24 33 25
70 59 41 36 30 20 8 15 9 19 21 28 39 33 31 28 16 32 33 37 40 39 42 42 41 38 34 33 33 36 32 37 39 40 37 37 32 30 26 27 29 29 33 32 22
56 26 27 21 12 8 4 3 16 23 23 25 29 34 34 14 29 23 29 26 32 34 35 37 35 32 29 31 32 35 39 39 38 37 35 36 30 24 27 36 36 36 32 35 36
20 20 19 11 6 8 7 5 13 13 20 25 25 32 33 26 30 31 32 26 26 30 30 37 33 33 27 27 27 34 37 38 42 39 34 30 25 34 33 42 26 39 39 38 39
14 17 14 12 10 10 8 9 10 11 17 22 29 29 35 30 37 41 42 36 34 37 23 41 34 32 26 30 31 42 36 38 42 37 36 31 23 29 38 35 17 27 33 40 39
14 15 13 15 18 12 10 8 7 8 15 21 26 27 32 39 24 30 41 45 35 41 39 38 37 39 36 33 35 35 42 41 42 38 34 34 30 29 25 23 30 24 24 37 44
18 17 15 16 15 14 12 9 12 5 11 14 22 25 29 35 41 36 38 38 36 32 36 24 39 35 32 34 35 33 37 43 45 43 38 34 28 30 35 32 19 27 21 39 46
18 19 20 17 17 10 14 13 14 11 10 7 12 19 23 28 38 48 46 42 39 38 29 31 24 32 31 32 32 29 36 34 38 30 26 30 38 46 41 34 29 13 21 37 21
17 19 20 18 25 22 17 14 14 18 16 14 10 13 19 22 26 30 33 34 40 46 43 36 21 25 28 32 30 30 25 24 28 30 28 27 28 45 40 39 35 30 18 19 23

GFSSW_500_spd_105.txt.gz
Wind_Speed
50 50 49 48 46 45 46 46 44 44 43 41 42 41 38 39 38 35 35 37 38 38 39 36 36 37 36 34 32 32 31 21 18 23 23 38 31 29 29 28 26 30 31 28 26
55 53 50 50 50 48 47 47 48 47 47 46 44 42 41 41 40 39 38 37 39 41 42 41 40 39 39 37 36 34 30 21 22 29 29 36 31 30 29 28 26 32 32 32 27
55 54 53 52 53 53 53 51 49 48 47 46 46 47 46 44 41 40 41 39 38 38 40 40 41 41 40 39 37 34 34 26 26 32 34 32 32 32 33 22 29 32 33 35 31
54 53 52 52 53 54 54 54 54 54 52 50 50 48 49 48 45 42 43 42 40 40 37 38 39 40 38 39 37 38 38 33 27 32 36 31 33 33 33 18 27 32 37 36 36
58 55 52 51 48 51 52 55 56 56 56 54 51 50 50 49 46 50 45 42 43 42 43 43 43 42 40 40 42 43 38 37 35 35 36 35 32 35 28 23 27 29 36 37 38
46 47 45 44 43 45 46 46 50 53 53 53 53 54 51 49 49 50 50 46 45 43 43 44 44 44 48 44 45 43 43 39 41 38 34 31 32 33 17 25 31 33 34 37 36
36 34 35 37 38 40 40 42 43 49 50 52 51 51 51 43 49 49 49 50 50 46 44 45 44 46 48 46 44 46 45 44 44 39 31 33 32 28 22 32 34 35 34 37 36
28 30 33 35 38 39 40 42 43 44 46 46 48 51 50 41 45 48 50 47 47 48 45 45 46 49 48 46 46 47 47 46 45 40 32 34 26 27 27 35 38 39 36 33 33
31 33 35 37 39 41 40 42 44 43 45 47 48 49 46 45 43 44 44 45 47 49 47 46 49 49 48 50 48 47 47 45 44 39 36 38 31 27 34 39 38 38 36 34 34
35 38 37 40 42 46 46 46 46 47 46 48 47 47 47 49 47 43 45 45 46 48 49 48 50 49 50 51 49 45 44 46 45 41 40 41 34 33 33 36 37 36 36 35 33
38 40 42 43 45 49 49 48 50 51 49 51 52 52 48 51 53 48 47 47 48 47 47 47 50 51 50 45 44 46 47 46 44 45 43 43 38 32 34 37 37 38 37 34 33
41 44 46 48 50 52 54 55 57 58 54 52 54 54 53 50 54 47 48 48 48 48 46 48 47 47 47 46 47 49 49 47 46 44 45 42 38 36 35 35 37 38 37 33 34
46 48 50 51 54 56 57 58 61 62 66 57 55 57 57 60 59 50 50 50 49 48 48 48 43 46 48 47 48 48 47 47 44 42 44 47 45 37 36 36 37 40 39 32 33
50 52 53 54 57 59 61 63 63 66 71 64 65 62 60 62 66 59 46 54 53 51 49 47 43 45 44 42 46 47 45 46 46 50 49 44 47 39 36 35 36 39 40 33 31
53 55 57 61 62 64 63 65 66 69 76 63 59 66 65 58 57 58 52 54 59 53 54 50 47 44 44 37 42 39 41 42 45 48 48 42 44 38 35 33 30 37 40 38 35
55 57 60 62 64 65 65 67 69 71 79 70 61 66 69 65 58 53 54 48 51 56 57 51 53 47 44 43 41 43 44 45 47 47 47 41 43 36 34 28 29 35 42 39 38
57 59 60 63 64 68 70 74 78 79 68 61 58 56 54 52 48 45 44 40 46 53 58 55 54 52 50 48 45 45 45 46 47 49 45 39 40 33 33 25 29 34 40 37 39
56 57 60 63 65 72 76 66 57 52 35 21 33 28 40 34 30 37 40 38 41 42 51 58 54 52 50 48 47 48 47 47 48 47 43 40 39 34 26 25 29 30 33 31 37
55 57 60 65 68 59 43 41 38 6 2 13 20 21 25 25 31 35 34 40 44 42 42 49 54 53 51 48 49 45 48 40 43 44 44 41 39 34 24 23 28 28 29 33 33
53 57 61 60 44 32 24 16 3 5 12 13 11 13 20 23 25 35 32 37 42 46 44 44 49 50 49 50 49 49 39 40 42 44 42 41 39 33 24 24 28 28 25 32 30
53 57 56 37 26 19 11 5 9 20 19 14 11 7 22 30 19 20 22 38 38 42 48 45 47 46 47 47 45 45 43 44 43 41 39 38 38 28 24 27 31 34 29 33 33
51 51 39 24 21 15 11 11 12 11 20 16 20 14 17 30 12 15 6 17 44 41 37 44 45 45 42 39 41 41 40 42 44 42 40 40 36 31 28 31 33 30 32 36 30
47 41 30 22 19 17 18 14 11 8 11 13 16 18 20 27 25 8 11 10 16 10 20 35 39 38 36 34 37 38 40 39 41 38 40 39 38 29 27 31 32 39 26 41 39
39 34 29 23 19 17 17 14 12 8 9 13 16 27 23 19 26 26 8 20 21 19 13 22 26 37 35 33 29 30 35 36 39 43 44 45 42 26 28 22 36 41 43 28 39
34 30 27 27 22 19 17 17 13 12 10 13 16 17 26 26 27 29 27 7 7 29 22 16 28 22 36 37 34 27 29 36 39 42 43 43 38 32 34 37 31 26 20 21 25
31 29 28 26 23 21 21 20 16 15 13 14 13 15 22 24 25 30 32 28 16 20 28 28 23 22 37 34 36 33 21 34 40 40 36 37 38 34 38 39 37 27 21 18 31
30 28 24 22 23 23 23 18 16 18 17 16 10 11 14 20 22 28 35 35 25 27 29 36 25 16 8 23 13 21 37 25 36 39 41 34 27 33 37 38 30 31 30 25 21

GFSSW_500_spd_108.txt.gz
Wind_Speed
53 55 54 54 56 54 53 50 48 48 48 47 44 44 42 39 39 37 35 37 36 35 36 37 38 38 38 38 37 36 37 31 23 24 26 34 37 35 26 23 21 22 23 24 25
53 55 57 58 58 60 56 54 52 50 50 50 49 48 46 45 42 42 40 39 38 40 39 40 40 40 41 41 41 40 37 32 27 29 32 37 37 35 29 25 21 22 24 25 27
52 54 57 58 60 60 58 56 55 55 53 51 50 49 48 47 46 46 43 43 41 42 41 42 42 42 42 43 43 41 38 36 32 33 37 39 38 37 32 27 23 25 25 26 26
54 55 57 59 59 59 55 55 56 56 56 55 54 52 51 49 48 47 46 45 44 43 43 44 42 41 39 39 41 42 40 40 34 35 40 40 41 37 34 25 26 28 28 29 29
56 56 56 57 58 59 58 56 57 55 54 54 54 54 51 51 49 51 49 47 45 44 44 45 45 44 43 39 40 39 37 37 37 39 42 42 39 36 38 25 28 30 32 33 32
49 49 51 56 57 54 51 50 50 53 52 51 50 51 53 47 47 49 48 47 47 46 46 45 45 45 45 45 44 41 40 39 38 42 43 41 36 44 30 32 34 34 35 35 34
50 51 53 52 52 50 40 38 40 44 45 46 47 48 47 44 45 44 46 45 45 45 46 47 48 48 47 46 46 45 44 44 44 43 43 40 40 37 33 36 38 39 37 36 33
48 51 51 48 37 38 35 35 37 36 37 40 43 44 46 43 43 44 43 42 45 47 45 47 47 48 48 48 48 49 48 46 44 43 43 41 38 35 35 40 41 43 40 37 34
38 38 35 34 34 33 36 36 38 37 38 39 41 42 43 43 42 42 42 43 43 44 46 46 48 48 49 51 52 51 50 46 42 45 46 44 38 39 38 43 45 43 40 37 34
27 29 32 35 37 37 37 40 40 39 40 40 43 45 44 47 46 43 46 46 46 46 47 49 49 49 48 53 52 50 47 46 45 46 47 47 43 43 43 44 46 44 42 40 37
32 34 36 39 41 43 43 45 47 46 43 45 45 43 44 47 48 42 45 46 49 50 50 49 49 48 48 48 48 49 49 49 49 50 52 49 45 45 46 46 48 45 42 39 37
37 39 41 44 46 47 49 50 51 52 45 44 49 49 50 53 49 43 44 50 48 49 51 53 50 45 47 48 51 53 53 51 50 50 51 48 45 48 49 45 43 44 44 42 39
40 42 44 46 48 51 52 54 57 60 61 52 55 53 54 56 55 54 50 48 52 48 51 56 48 48 48 48 49 50 51 52 50 47 45 50 46 47 46 44 43 41 40 40 38
42 44 45 48 51 52 55 58 62 65 67 62 67 68 63 62 61 61 60 54 53 56 51 53 49 53 52 48 50 50 47 48 47 46 47 46 50 48 44 39 40 39 39 40 40
43 46 48 50 52 55 58 62 65 65 69 68 72 72 73 72 69 62 61 60 58 54 57 52 54 54 53 44 45 43 43 42 44 46 48 48 50 51 44 42 39 41 41 41 39
45 47 49 52 55 59 62 66 67 70 80 74 74 74 75 72 70 68 63 59 59 53 57 57 59 61 53 51 46 43 42 43 45 45 50 46 46 45 43 41 36 39 39 40 38
47 49 51 53 56 60 62 65 68 71 73 70 67 61 56 56 54 58 58 53 53 54 51 52 57 60 59 56 52 49 46 44 46 48 46 48 45 41 39 39 37 34 36 37 36
48 50 51 54 57 59 61 66 68 66 59 55 45 30 31 30 32 33 29 33 39 46 49 56 58 57 61 59 56 50 48 44 44 46 45 46 43 39 41 38 36 36 34 34 36
49 50 52 53 55 58 61 64 58 51 45 24 21 18 15 15 14 22 29 26 33 34 44 49 56 56 58 56 52 52 53 43 41 42 45 46 44 41 40 35 35 37 35 29 33
49 49 51 51 54 56 58 49 39 34 20 20 21 10 9 14 11 6 20 29 32 34 36 40 46 44 51 56 55 52 48 46 43 46 48 47 44 43 40 31 33 36 33 24 27
47 48 48 50 51 52 46 37 30 27 24 25 19 18 7 16 19 6 13 3 23 30 27 31 37 31 34 46 50 51 52 51 47 45 45 44 43 41 39 33 35 36 35 25 26
45 45 47 47 47 45 35 31 24 23 24 20 21 18 7 7 20 20 5 10 21 30 30 30 38 34 32 34 41 46 48 45 47 44 45 44 43 44 41 31 30 34 32 28 29
42 44 44 44 41 36 31 29 25 22 21 16 14 24 24 21 14 16 4 10 12 12 24 33 31 37 31 34 36 39 41 42 43 43 44 44 41 40 38 30 30 34 33 34 30
39 42 43 40 36 31 29 29 25 21 19 15 12 17 21 23 24 17 22 11 14 10 9 9 26 31 34 34 34 37 37 36 37 41 42 43 41 42 36 32 31 28 33 32 31
37 39 40 35 33 30 28 28 24 20 18 14 14 16 23 20 24 27 26 28 8 8 4 5 4 7 16 34 34 30 32 34 35 37 40 42 42 41 33 27 30 29 24 26 34
36 38 37 32 30 28 28 27 23 23 20 17 14 12 22 20 19 17 23 26 23 10 1 3 3 2 15 29 30 35 26 28 32 34 37 38 40 39 34 36 35 32 31 24 26
35 37 33 31 29 26 25 24 24 22 26 20 17 13 17 18 15 16 16 19 23 24 22 14 8 8 7 18 32 34 39 23 25 26 28 32 32 30 29 33 35 31 24 26 27

GFSSW_500_spd_111.txt.gz
Wind_Speed
46 47 50 51 51 53 52 54 53 53 54 52 52 49 48 46 45 44 44 40 40 37 36 37 38 38 38 37 36 36 35 30 28 24 23 31 36 32 34 30 26 22 21 23 19
44 49 51 52 55 54 55 56 56 56 58 57 54 51 50 49 49 48 47 45 42 43 40 40 39 39 40 40 39 40 36 34 29 29 30 36 40 36 35 33 29 26 26 25 23
47 49 51 55 55 58 58 56 55 56 55 54 54 54 52 52 51 49 47 48 46 43 45 43 42 42 42 43 42 41 38 39 35 35 37 39 41 43 36 34 32 29 30 29 25
48 51 53 57 57 59 60 60 58 50 49 52 55 53 54 51 53 54 51 48 47 46 44 44 44 45 44 43 42 43 42 43 40 39 39 41 44 45 39 36 33 33 33 31 29
51 53 54 57 54 49 47 45 47 46 47 48 50 55 55 51 48 52 53 51 48 47 46 46 46 45 45 44 44 44 42 42 43 41 42 43 43 42 39 40 37 36 35 33 33
54 53 52 52 49 45 45 46 45 50 50 52 52 50 50 45 43 45 48 47 48 48 47 45 47 48 46 46 46 46 44 42 41 41 41 40 36 41 39 37 38 39 35 38 41
53 49 45 43 42 40 41 43 44 46 48 48 48 43 42 39 41 40 42 40 42 44 44 44 45 48 48 48 48 47 46 47 45 44 42 39 36 39 40 38 38 41 41 41 44
48 42 40 36 37 39 38 40 39 39 35 38 45 40 36 33 34 39 40 40 41 45 42 45 45 47 48 47 48 48 49 48 48 46 43 42 38 40 39 39 42 44 44 44 45
44 40 37 38 37 36 30 28 29 30 32 35 33 30 35 42 43 38 39 41 43 45 46 46 48 47 47 48 49 51 50 50 49 46 46 45 41 40 41 44 46 47 47 47 46
37 37 38 37 37 32 31 33 35 36 36 37 37 37 39 41 41 42 46 41 43 46 47 48 47 47 47 51 50 50 49 49 49 50 48 46 45 46 44 45 48 49 48 47 47
36 37 39 37 36 34 35 38 40 40 39 39 41 41 42 42 42 43 45 46 48 46 48 50 50 44 48 47 46 48 49 49 50 53 53 50 48 49 46 46 48 49 49 46 45
36 37 37 37 36 39 41 42 44 44 41 42 44 47 48 48 48 52 50 49 47 47 48 53 53 47 49 49 48 49 49 47 51 51 53 49 48 50 49 47 47 49 48 46 43
36 37 36 37 39 42 45 45 46 47 48 49 52 52 55 55 54 56 55 53 53 51 52 52 43 51 52 52 51 49 49 48 49 49 48 51 47 48 48 51 47 48 47 45 45
36 36 38 38 40 44 45 46 48 50 52 56 59 62 62 63 62 63 63 60 59 59 58 58 46 51 53 52 52 51 48 48 47 47 46 44 51 51 48 47 45 44 43 41 40
37 36 37 39 42 45 47 48 49 52 54 60 62 63 66 70 72 66 60 62 61 59 62 57 57 54 54 47 52 49 48 46 46 46 46 45 48 51 48 45 42 40 39 38 37
37 36 38 40 44 46 48 49 52 53 57 61 63 67 68 68 67 70 70 59 56 59 58 59 56 57 52 56 52 49 52 51 48 47 50 45 45 48 49 46 40 37 38 39 43
38 37 39 40 44 46 48 52 54 55 59 61 64 66 62 59 51 45 43 42 42 45 51 54 57 54 51 56 56 54 54 51 48 50 50 47 46 44 44 42 38 36 37 42 45
38 38 40 41 45 47 49 51 53 57 58 61 61 54 44 38 20 18 21 14 12 23 27 44 49 54 52 53 57 56 53 53 50 50 46 42 43 41 40 38 36 31 33 37 39
39 39 40 42 45 47 48 51 53 55 56 54 48 43 22 21 15 8 21 11 15 15 27 29 35 47 51 51 54 56 56 50 45 42 44 45 42 40 38 36 36 32 35 36 37
40 39 40 43 46 47 46 48 50 52 46 41 40 35 18 16 21 24 20 10 8 26 28 22 24 33 43 48 50 51 48 46 44 44 46 47 44 40 36 35 35 30 34 38 35
39 39 40 42 45 44 43 45 46 45 38 35 32 29 19 18 16 13 17 11 8 12 14 27 26 23 26 31 40 46 50 51 46 43 43 43 44 39 36 36 34 31 33 37 35
39 39 40 42 43 41 42 41 41 37 34 30 26 24 22 24 17 17 14 10 9 5 16 6 14 20 22 20 19 33 37 34 45 45 44 42 41 38 36 34 35 32 32 35 37
38 38 39 41 40 39 39 39 36 32 30 27 25 23 20 18 25 21 17 16 14 11 8 13 21 18 22 27 24 19 27 38 37 38 39 40 39 37 37 38 37 35 33 35 37
37 38 39 39 37 37 37 36 34 31 27 24 21 21 22 16 18 22 21 15 5 10 13 12 2 21 22 29 29 29 17 22 33 38 37 38 37 38 38 38 39 36 33 34 36
36 37 38 36 35 36 34 33 30 27 25 22 21 21 24 18 11 19 22 21 16 9 9 12 11 14 27 27 29 27 25 24 20 24 31 30 34 36 36 36 36 32 33 31 33
35 34 35 34 34 34 33 30 27 23 22 24 21 21 23 21 15 13 19 23 19 15 8 8 8 12 12 29 30 27 23 19 24 27 27 28 29 32 35 37 32 28 28 28 29
35 34 33 33 34 34 33 30 24 21 23 21 21 21 22 21 14 12 13 10 16 17 17 13 7 7 9 5 22 23 25 23 21 25 26 26 27 26 29 31 29 31 32 30 27

GFSSW_500_spd_114.txt.gz
Wind_Speed
26 25 30 30 29 32 35 36 38 42 45 47 51 55 54 50 47 48 47 46 46 44 43 44 46 43 43 43 41 40 39 38 34 28 27 30 35 37 36 35 32 29 26 26 20
29 31 32 33 33 36 38 38 39 44 47 49 50 51 57 56 50 48 48 48 46 49 46 46 46 46 44 44 45 44 43 39 36 31 32 35 39 40 41 40 37 32 28 26 23
32 35 37 34 41 42 41 42 43 46 50 52 49 47 50 48 55 53 47 49 50 48 49 48 47 48 49 46 45 44 44 42 42 36 38 38 40 43 46 45 38 36 35 30 27
34 37 39 41 45 47 47 48 47 47 47 49 45 43 44 47 49 50 51 48 49 50 49 49 48 50 49 49 46 48 46 46 46 42 42 43 43 46 48 49 42 40 40 33 31
37 39 41 43 47 47 48 48 48 45 44 42 40 41 44 46 48 49 48 47 48 49 49 49 49 48 49 50 49 48 49 49 48 47 47 47 46 44 47 51 45 43 41 36 36
39 41 41 44 46 48 45 43 40 41 40 38 36 39 40 44 43 46 46 46 44 45 46 48 49 50 51 49 50 51 51 50 48 47 45 47 44 46 47 47 46 46 43 40 39
39 41 42 45 42 41 38 38 38 42 36 33 34 38 37 39 39 44 44 38 40 42 42 44 47 50 53 53 52 51 52 50 50 50 45 44 42 43 45 47 47 45 43 44 43
40 42 43 40 37 37 34 36 37 38 36 33 33 35 34 33 31 37 41 34 34 38 40 43 43 47 50 53 52 53 53 52 53 52 50 46 42 43 44 43 43 45 46 47 45
42 42 41 36 32 29 31 33 35 36 34 35 33 35 38 38 36 35 34 35 43 40 41 40 45 48 47 50 52 53 55 55 54 54 49 47 45 46 47 45 45 46 48 49 48
42 39 36 32 28 29 31 33 35 36 36 36 35 38 39 39 38 38 37 38 38 39 43 44 46 47 48 51 53 53 54 52 51 53 55 52 48 49 48 47 47 49 50 49 50
39 36 33 30 30 30 31 33 35 36 39 40 41 41 42 40 42 44 44 44 44 42 44 44 49 46 47 50 46 52 52 53 52 56 56 54 52 51 50 48 50 49 47 49 49
37 34 32 31 31 32 33 35 36 38 40 41 40 39 41 43 45 48 48 49 47 48 48 47 47 39 51 50 50 51 51 48 53 54 57 54 53 53 53 51 49 49 49 48 48
35 33 33 33 33 33 35 36 39 41 41 41 42 45 48 49 51 54 55 56 55 54 54 54 42 48 48 52 53 52 51 52 52 52 54 52 53 53 52 52 52 51 48 47 48
36 35 36 35 35 35 36 38 40 42 43 44 45 48 52 55 59 60 61 62 62 61 59 56 54 55 54 51 50 54 53 56 54 50 49 47 49 45 51 51 51 49 49 46 44
37 36 37 37 36 35 37 39 39 41 44 44 46 48 53 58 62 66 66 65 62 62 61 55 57 62 59 50 53 49 52 54 53 52 49 47 49 52 50 47 47 45 44 41 41
37 38 39 37 34 36 38 38 40 41 45 47 48 51 55 58 60 64 64 60 61 59 55 58 56 61 59 58 58 53 53 50 51 52 55 47 48 50 49 46 44 44 40 41 40
39 41 40 36 36 37 37 38 42 41 43 47 51 53 57 60 61 57 44 18 24 22 22 35 50 55 60 60 57 57 56 54 52 55 54 45 51 48 48 45 40 40 37 37 40
40 42 39 36 35 36 37 38 40 42 42 47 51 53 55 56 49 33 7 8 15 24 16 25 23 38 54 61 56 58 56 55 55 52 51 46 50 46 43 44 40 35 28 33 38
42 41 38 36 36 36 37 38 40 41 43 47 49 51 48 43 38 13 17 25 17 15 16 15 13 12 27 48 52 51 52 50 37 27 31 36 49 46 43 43 41 39 29 32 34
42 41 37 35 35 35 36 38 40 41 44 46 49 46 42 34 28 19 21 23 17 21 10 10 16 6 11 26 38 43 44 41 38 41 48 45 40 35 43 39 38 34 31 31 35
40 40 36 35 34 34 36 38 39 41 42 43 44 37 32 30 26 19 13 19 23 20 9 11 17 11 12 14 15 35 43 37 35 41 33 30 33 28 43 39 35 30 28 32 35
41 40 37 35 33 33 35 36 37 39 40 41 36 29 26 27 22 16 16 26 28 15 3 8 2 19 15 15 18 18 23 27 35 40 44 30 29 30 41 36 34 32 30 31 33
41 41 36 33 32 32 34 34 36 37 38 38 31 26 22 23 23 12 19 20 22 14 13 10 3 9 9 18 19 22 28 27 29 28 33 39 33 37 35 33 31 29 27 29 29
41 39 33 31 30 31 33 33 35 36 35 32 26 23 20 18 20 15 20 18 23 14 9 9 7 6 12 11 23 19 13 21 35 32 33 34 32 31 33 34 33 35 31 30 31
39 35 30 27 29 30 31 33 34 34 31 28 24 22 21 17 14 16 15 15 22 23 12 12 8 7 17 20 20 21 12 14 19 26 30 31 31 31 34 31 33 33 32 30 32
37 28 25 27 29 30 30 31 33 31 30 26 24 21 22 19 13 8 10 21 15 18 16 14 9 11 5 26 22 21 20 11 7 17 21 27 30 29 31 32 31 28 28 27 27
25 23 25 27 28 28 29 31 32 29 28 26 24 19 20 20 14 11 7 6 13 10 9 8 12 12 14 10 17 22 21 15 10 14 14 19 24 24 27 33 32 28 26 26 25

GFSSW_500_spd_117.txt.gz
Wind_Speed
27 28 29 28 28 30 32 31 31 33 33 36 36 37 39 41 43 45 49 53 49 51 49 48 47 45 45 44 43 44 46 45 43 42 32 34 42 36 41 39 38 33 33 36 23
28 29 27 28 30 31 30 32 34 37 37 37 39 40 41 42 43 42 44 47 51 51 47 50 51 50 47 47 47 47 48 48 45 43 37 40 42 39 46 43 43 38 35 34 32
29 29 29 29 31 32 30 31 34 37 38 40 41 41 43 44 44 41 42 44 45 47 51 48 52 52 51 50 51 48 47 47 48 48 43 42 44 43 48 46 44 45 39 38 36
31 30 30 32 33 33 33 35 37 39 41 41 42 43 43 43 43 46 44 42 44 48 49 48 52 55 54 52 52 54 49 49 49 52 51 45 46 49 51 51 46 48 45 44 36
36 35 34 35 36 35 36 37 40 40 42 41 39 39 40 41 43 45 46 44 46 48 49 48 51 54 55 54 53 54 54 53 53 53 54 50 51 52 51 52 49 50 49 45 41
36 36 38 36 35 35 35 37 40 39 37 36 36 37 37 39 39 42 42 42 44 47 47 48 48 53 54 55 56 56 55 57 56 56 54 53 53 53 51 51 52 51 50 47 44
39 38 38 37 36 36 37 38 37 34 33 35 35 35 35 35 37 37 36 36 37 43 44 44 48 48 53 53 54 57 57 57 56 56 55 54 54 52 52 50 51 50 51 48 46
39 38 37 37 38 38 37 35 33 31 30 33 34 32 34 36 36 35 36 35 35 34 36 37 41 49 43 53 53 55 58 58 54 57 57 57 52 50 48 49 47 50 49 51 47
39 38 38 39 41 40 35 32 31 28 29 30 32 33 36 37 37 38 38 37 37 38 39 39 41 40 38 44 49 54 59 56 56 52 55 60 54 46 46 48 49 44 43 47 49
37 38 38 42 41 38 34 31 28 27 28 30 31 34 34 37 39 40 41 42 41 39 42 43 41 41 43 42 50 42 49 51 50 50 51 60 56 51 48 52 50 46 44 46 47
38 38 40 42 37 36 32 28 30 29 31 32 31 34 38 39 39 40 40 41 44 47 46 46 46 44 44 46 42 49 50 49 51 37 41 55 60 57 52 49 52 47 49 50 48
39 40 42 38 37 33 29 29 31 32 32 32 35 36 38 39 40 41 42 45 49 49 52 53 51 47 47 47 47 51 50 52 46 47 48 52 60 57 54 53 53 50 51 48 50
40 42 39 36 35 31 30 31 32 33 34 36 38 38 39 42 44 46 48 51 53 55 57 58 52 54 54 51 50 51 53 45 52 47 39 53 60 57 51 53 52 50 51 52 50
42 41 37 35 33 32 32 32 34 35 36 39 37 39 41 43 47 50 53 56 59 61 63 60 59 63 57 55 50 56 49 51 53 54 53 45 53 42 48 49 53 55 54 51 51
41 38 35 34 33 33 33 34 36 35 34 41 40 41 43 46 48 52 56 59 62 63 65 62 61 62 63 58 55 54 51 50 48 45 56 52 50 40 38 43 50 54 51 51 53
39 35 35 33 34 34 34 36 35 36 39 40 41 42 43 46 49 52 56 60 63 63 59 59 57 56 62 63 58 55 56 51 52 44 43 48 49 45 27 32 40 50 43 46 47
37 35 35 34 35 34 36 37 35 37 36 40 41 41 43 46 49 54 55 56 54 45 35 37 32 31 33 52 57 58 58 47 38 40 51 41 41 50 30 24 26 37 42 38 42
37 37 36 35 36 36 37 36 36 35 36 38 40 42 44 47 49 52 56 46 29 25 27 33 12 16 17 35 41 46 42 43 44 40 53 39 33 37 30 35 43 42 34 33 37
39 39 37 37 38 37 37 36 36 35 36 36 39 41 45 47 49 51 48 29 27 20 26 25 12 14 20 21 28 34 45 39 39 32 29 23 35 37 30 34 47 41 36 32 31
41 41 39 38 39 37 36 36 36 34 34 35 38 41 42 45 47 48 40 23 25 24 27 19 14 13 13 23 22 29 35 37 44 40 30 30 27 28 25 31 35 33 32 33 34
43 42 39 38 37 36 35 35 34 32 32 34 38 39 40 43 45 38 29 19 21 22 26 15 16 15 15 5 10 16 33 37 32 39 35 29 27 24 22 29 30 28 36 32 32
43 39 37 37 36 35 34 34 33 31 31 34 36 37 40 42 40 28 21 18 24 26 23 11 12 10 2 1 9 16 17 31 36 33 37 31 24 20 29 37 30 34 31 26 27
39 37 37 35 33 33 33 32 30 30 31 35 35 36 40 40 35 25 20 18 24 28 18 9 5 14 8 11 9 15 20 26 31 29 35 32 27 29 28 30 31 32 32 25 28
36 36 34 32 30 31 30 28 28 28 31 33 33 36 39 35 26 24 24 17 22 24 25 8 4 7 12 13 6 14 17 30 27 31 30 31 28 24 32 27 45 22 25 25 29
33 32 31 30 29 29 27 26 27 28 30 30 32 36 37 32 22 21 21 15 20 24 22 3 3 13 18 11 10 7 1 19 38 35 36 29 28 28 31 33 43 42 29 30 30
30 30 30 29 27 25 24 26 26 28 29 30 33 36 34 28 22 16 18 14 15 21 19 12 6 4 15 12 16 11 10 2 14 38 37 37 37 22 27 29 29 36 32 32 31
31 28 27 25 23 21 23 25 26 27 27 31 35 35 28 25 23 17 15 14 13 13 11 12 8 5 4 9 13 12 11 7 4 7 33 38 35 33 24 31 34 34 34 32 23

GFSSW_500_spd_120.txt.gz
Wind_Speed
34 34 34 31 33 34 33 33 34 34 33 34 36 37 36 35 35 37 38 36 39 41 43 45 46 46 48 48 48 47 47 47 43 40 38 36 37 41 48 36 33 41 38 37 43
37 37 37 35 34 33 33 34 32 32 34 37 36 35 37 37 37 41 41 40 40 38 38 39 44 47 48 48 49 50 53 48 46 40 40 31 31 40 53 46 41 45 43 39 40
37 38 38 35 35 33 32 32 32 33 34 35 35 35 35 38 42 37 38 40 39 39 40 41 41 44 46 48 48 52 55 52 51 48 45 45 42 48 54 46 49 43 48 40 41
33 37 36 37 35 34 34 35 37 37 38 38 38 38 39 41 39 40 39 40 40 40 41 42 41 42 46 50 51 53 56 57 55 53 52 50 52 52 52 48 50 51 46 51 45
36 36 37 39 39 39 37 36 36 37 36 36 37 39 39 40 39 39 40 41 43 43 42 41 43 43 46 51 55 56 56 59 60 58 56 56 55 52 52 53 53 55 50 50 49
32 33 35 36 37 38 38 37 37 37 39 38 37 38 34 36 37 35 37 39 40 43 43 43 44 44 48 49 53 55 58 59 62 62 60 61 60 55 48 54 56 56 52 51 50
36 36 36 38 37 36 36 38 37 38 39 39 37 34 33 33 32 32 34 35 38 41 42 43 46 48 48 49 51 55 61 61 61 60 61 62 64 60 50 54 57 58 56 53 52
38 37 38 38 37 37 35 37 39 39 37 36 34 33 32 30 31 32 33 34 37 39 40 41 44 48 42 42 42 45 57 64 63 61 61 56 64 58 54 55 55 56 56 56 54
41 41 40 38 36 34 40 40 40 38 36 35 35 35 33 30 31 33 33 34 35 37 39 43 46 45 45 45 45 39 44 43 59 57 52 39 62 53 55 53 55 55 55 55 53
39 39 37 38 38 39 40 41 39 36 36 37 35 35 32 33 33 34 33 34 35 36 39 42 43 46 44 46 47 46 47 46 45 49 50 32 53 36 54 45 51 48 51 52 48
40 40 36 38 38 39 40 41 37 35 36 35 34 33 34 33 34 35 35 35 37 39 42 45 45 48 49 51 51 52 51 49 46 38 40 45 34 41 34 41 44 48 50 48 47
38 37 37 39 38 39 40 39 38 37 35 32 33 34 33 34 35 37 37 38 40 41 44 46 47 55 59 60 57 54 55 53 49 43 43 46 45 38 32 42 49 46 50 51 49
37 38 39 36 38 40 39 37 38 37 36 35 33 32 33 34 36 36 37 40 44 46 47 49 51 58 61 62 64 61 54 53 52 44 37 38 51 50 48 51 53 50 49 51 49
39 39 37 38 38 38 37 36 37 34 33 37 34 31 34 36 39 40 41 44 46 50 53 56 59 64 66 66 66 69 55 52 53 46 41 36 50 44 43 48 51 45 43 46 48
40 36 36 37 39 37 35 35 35 31 31 36 35 33 37 38 40 43 44 47 49 53 58 58 63 65 65 63 62 65 56 53 54 53 32 40 47 37 33 32 22 32 39 51 50
37 35 36 37 37 35 34 34 32 29 34 33 33 35 36 38 40 42 44 48 51 57 59 62 60 44 48 48 47 53 52 52 56 51 39 48 44 39 33 33 13 22 31 28 37
37 34 36 36 34 35 33 32 30 31 31 36 34 34 35 39 40 42 44 48 54 60 63 58 36 35 31 40 34 36 36 53 49 46 49 51 48 43 25 22 17 23 34 38 43
36 36 36 34 34 34 34 31 30 33 34 33 34 34 35 38 40 42 45 48 52 56 56 45 26 28 28 30 31 29 33 40 38 34 46 48 34 43 21 22 27 27 28 28 25
38 37 36 35 35 35 34 32 35 33 33 32 33 34 35 38 38 42 45 48 52 49 47 36 16 16 23 25 29 27 32 33 33 30 33 24 20 34 20 16 32 34 41 38 28
38 36 37 38 36 35 33 33 34 31 32 31 32 32 34 36 37 41 44 46 46 42 37 23 17 16 23 24 25 18 12 27 32 35 35 31 25 14 19 29 29 39 43 47 36
38 37 39 38 38 34 33 35 30 30 30 30 30 31 33 35 37 39 42 42 40 41 25 22 29 13 22 15 12 18 9 16 24 37 30 24 24 13 13 24 29 31 32 28 33
40 39 38 37 36 33 32 29 31 31 29 28 28 30 32 33 35 39 40 39 37 36 17 22 27 18 15 11 6 10 15 16 23 28 35 26 29 23 24 24 34 32 28 29 28
42 40 38 37 34 31 29 29 27 27 27 26 27 29 30 33 35 37 40 36 35 30 23 17 23 19 11 14 17 15 16 14 28 25 23 37 31 15 17 17 22 31 30 31 36
39 37 34 32 30 28 27 26 26 25 25 25 27 28 30 33 35 36 39 36 32 28 23 21 16 21 21 22 15 6 8 18 27 29 25 25 33 20 20 31 33 38 34 19 29
34 32 30 28 26 25 25 25 23 23 22 24 26 27 30 33 35 37 37 34 27 24 23 21 16 22 18 20 14 19 16 19 27 27 27 29 19 23 31 34 32 28 36 50 15
28 30 27 28 24 25 23 23 22 21 22 25 25 27 29 32 36 37 35 30 22 18 22 19 13 16 11 16 11 9 11 4 26 31 13 35 33 33 37 37 28 28 48 50 45
26 25 26 26 22 22 22 22 20 20 21 22 25 28 30 33 35 34 29 22 20 17 14 10 13 17 5 8 5 4 5 9 12 32 27 34 32 26 35 41 27 33 27 44 41

GFSSW_500_spd_123.txt.gz
Wind_Speed
38 37 36 36 39 37 35 35 35 36 36 34 33 32 34 36 37 37 36 35 35 37 38 35 35 38 39 41 44 46 48 46 46 44 39 34 32 35 37 45 48 48 41 46 45
40 40 38 36 37 39 39 37 35 35 35 35 33 32 33 35 36 35 37 37 36 36 37 37 37 37 38 39 43 45 45 47 45 45 45 40 38 42 43 47 49 46 44 41 47
44 41 40 37 37 37 38 36 36 35 34 34 33 34 36 37 37 36 37 37 38 40 39 39 39 39 41 42 42 44 46 46 47 48 49 48 47 43 51 53 52 49 43 50 54
43 42 37 36 35 36 36 36 36 35 36 36 36 37 37 36 36 38 35 35 36 37 39 38 38 38 39 39 40 44 46 48 49 51 53 52 50 50 52 51 57 52 51 50 51
37 38 39 38 38 36 36 36 38 38 39 38 36 38 37 37 37 37 39 40 39 39 37 37 37 39 37 35 38 41 44 47 50 55 57 58 56 57 55 53 60 59 56 52 53
43 39 38 35 35 34 35 36 37 38 37 37 37 37 37 37 36 36 36 36 37 39 38 38 37 39 40 39 41 43 45 48 50 54 60 62 61 59 58 59 60 59 57 55 54
48 47 43 41 39 37 36 38 38 37 36 35 33 36 39 37 36 36 35 34 36 37 35 37 38 40 42 44 45 47 50 50 47 48 55 59 67 66 57 62 62 59 57 54 51
45 47 46 47 46 47 43 40 41 39 36 36 37 39 36 34 33 34 33 34 35 35 36 37 39 40 43 44 43 50 50 48 44 40 42 49 67 63 62 62 63 62 59 58 53
44 45 42 39 38 38 37 33 30 33 34 36 37 36 34 33 33 34 34 33 35 37 38 38 40 42 43 45 45 46 48 48 52 41 43 43 49 62 63 56 59 58 60 60 54
44 39 41 41 38 38 36 32 34 34 34 38 38 36 33 32 33 34 34 34 35 36 39 42 44 44 42 45 47 49 52 52 51 41 47 46 47 46 44 48 42 48 55 56 58
44 40 39 40 38 39 34 34 34 33 35 36 36 35 33 33 33 35 33 35 37 39 40 41 44 45 46 49 52 54 57 59 56 52 52 53 48 45 42 39 43 38 44 50 56
50 44 40 40 38 37 34 35 35 34 34 32 33 33 34 34 35 37 36 37 39 39 39 41 42 47 49 50 55 58 63 61 58 59 55 55 53 50 46 38 48 47 45 45 49
49 46 40 40 39 38 37 35 36 36 34 32 31 31 33 34 35 36 37 37 38 38 40 43 44 48 52 52 59 62 65 66 67 62 65 57 57 52 45 37 46 52 49 50 51
46 45 42 41 40 39 37 37 36 33 32 33 33 30 30 31 34 35 36 37 37 39 43 44 49 52 53 61 67 74 72 71 69 67 68 55 56 54 46 35 34 39 44 49 53
45 46 43 41 40 39 37 37 33 32 30 31 29 29 30 31 34 36 36 36 38 41 44 47 51 56 61 67 67 65 56 53 54 54 62 63 51 53 44 33 26 31 38 38 39
44 44 46 45 42 39 35 34 31 29 30 30 29 30 31 33 34 35 35 37 38 42 47 49 54 54 60 52 47 42 41 38 35 39 52 58 50 51 45 30 21 14 20 24 34
47 44 45 42 40 37 34 32 29 28 29 29 27 29 30 33 33 33 36 38 41 44 48 49 55 51 35 35 39 35 41 40 34 30 50 47 48 50 39 31 20 21 18 22 22
42 41 41 40 39 36 33 31 28 31 30 25 27 28 28 33 32 33 35 37 41 45 49 55 61 43 18 27 32 30 32 33 39 39 31 42 42 46 43 23 22 27 26 14 20
39 38 41 39 38 35 33 30 30 30 26 25 28 29 28 32 32 33 34 36 41 44 49 54 40 12 16 25 31 27 26 28 31 24 26 26 29 36 26 17 31 30 31 27 34
41 41 42 40 38 35 33 31 30 27 27 27 26 27 28 29 30 31 33 35 38 43 48 47 44 15 16 24 25 28 24 25 19 24 25 19 25 21 21 27 34 25 32 29 23
43 43 44 41 38 35 32 32 30 25 28 27 26 26 26 26 28 30 32 34 38 42 46 42 32 11 17 24 26 17 8 9 17 20 16 18 22 26 13 26 26 32 29 26 27
44 45 44 39 36 33 32 30 27 27 26 25 25 26 26 25 26 29 30 33 39 42 44 34 24 17 12 19 17 21 20 9 17 14 11 22 30 20 5 29 27 24 27 27 30
46 46 41 37 34 32 30 29 28 29 24 22 23 24 24 25 26 27 28 34 38 42 39 32 18 22 12 9 12 21 16 23 20 20 17 26 35 14 9 3 25 29 24 30 31
44 44 40 38 36 33 29 26 26 26 24 24 23 23 23 24 25 26 28 32 36 38 31 30 12 19 20 20 20 15 12 20 17 13 15 30 25 11 14 17 34 31 36 33 31
42 41 40 35 32 27 26 24 25 22 23 22 21 21 23 22 24 25 28 32 34 34 23 22 13 16 16 22 12 17 21 27 17 12 19 18 21 13 19 23 28 33 25 35 29
36 35 35 30 27 25 23 22 23 23 20 20 20 21 21 22 23 25 29 32 34 28 20 17 13 16 10 20 14 8 18 23 9 16 22 25 21 28 26 26 27 24 32 9 26
32 31 28 29 25 23 22 23 22 21 19 18 19 19 20 21 22 27 29 31 32 26 14 19 18 17 8 11 3 2 11 4 21 16 18 26 32 33 34 30 27 27 30 15 14

GFSSW_500_spd_126.txt.gz
Wind_Speed
40 38 36 36 38 38 37 37 39 40 38 38 36 37 37 34 32 30 34 35 37 37 38 38 39 41 42 40 40 40 40 40 40 40 39 32 35 38 39 37 45 57 48 50 53
39 41 40 38 39 40 37 36 37 41 42 40 38 38 38 35 33 32 33 33 34 36 37 39 40 41 41 40 42 43 45 43 40 41 41 42 40 39 43 42 42 55 57 51 57
40 41 40 40 41 41 41 38 37 38 39 40 39 38 38 36 34 36 35 37 39 38 40 40 40 41 40 39 39 43 45 42 43 44 44 44 45 40 49 47 49 54 58 56 51
43 42 40 40 40 39 39 38 35 35 37 38 38 38 39 37 36 36 36 38 37 37 38 39 39 40 38 39 40 43 38 42 44 44 46 46 46 45 45 47 56 58 56 58 54
43 44 42 40 39 39 39 39 39 36 36 38 38 38 40 39 35 37 38 37 38 38 39 38 39 39 39 40 40 39 40 41 41 42 42 42 43 47 46 47 59 62 58 59 58
43 45 44 44 45 43 42 40 37 37 37 37 38 38 40 38 36 35 35 35 37 38 39 38 38 38 39 37 40 41 41 42 42 40 40 45 47 48 49 46 51 63 65 60 63
43 44 46 46 48 50 50 46 40 39 40 40 38 36 36 33 33 33 35 36 37 37 36 38 37 37 41 41 44 47 49 46 42 42 46 41 55 53 50 48 50 62 69 64 63
46 46 47 49 50 47 48 52 47 43 42 38 39 41 37 36 34 35 34 34 35 36 36 38 38 40 41 43 45 48 50 53 46 45 44 47 54 49 47 49 53 55 67 71 62
41 41 45 48 49 45 43 42 38 36 36 34 30 31 28 28 29 31 33 34 33 36 38 38 39 40 42 47 51 53 54 54 52 49 51 51 55 51 46 48 51 50 62 68 75
41 38 39 42 41 41 41 40 37 37 35 32 30 27 27 32 32 30 32 33 35 35 37 39 40 41 45 49 52 55 57 57 59 53 63 58 59 56 54 49 48 50 48 64 67
42 43 45 41 41 40 40 40 38 35 32 32 33 34 33 33 33 30 31 33 34 35 36 38 40 43 47 50 52 56 60 62 57 58 67 66 65 60 59 57 53 48 47 46 59
47 46 45 45 44 46 44 40 38 35 32 34 35 35 33 31 32 29 32 32 34 35 38 41 43 47 48 50 52 55 61 61 61 60 68 70 72 69 61 60 51 50 48 42 48
52 44 41 42 45 47 47 42 38 36 36 34 34 33 32 32 30 31 30 31 34 36 38 40 45 46 47 49 54 53 62 67 73 72 73 73 80 75 67 65 56 48 42 39 47
47 43 44 42 43 46 44 40 38 37 37 34 31 30 30 30 31 30 30 32 34 36 39 42 43 45 47 51 57 59 65 72 70 64 64 49 75 74 70 65 60 49 39 38 45
41 38 42 42 45 44 42 38 36 35 35 33 30 26 25 27 29 28 30 33 34 36 39 41 43 47 50 54 61 64 65 57 49 44 44 42 48 56 50 59 55 47 40 39 43
44 40 38 42 45 42 37 35 34 32 33 31 31 25 26 28 29 29 31 32 35 36 37 39 44 49 52 54 56 53 44 39 38 42 44 37 43 45 34 41 45 41 36 33 38
51 45 38 29 33 40 37 35 33 32 32 32 29 29 31 30 29 28 29 32 34 35 35 36 41 49 53 54 45 30 36 43 35 41 46 43 45 40 15 27 35 34 27 37 40
51 42 37 41 42 38 36 34 33 33 30 27 27 31 30 30 29 29 30 33 32 35 36 38 41 46 45 41 39 24 36 42 41 42 48 41 43 36 10 19 22 28 27 37 37
47 42 29 33 46 40 36 34 34 33 27 25 29 30 29 29 27 28 30 30 31 34 35 38 42 41 40 31 28 24 32 32 33 33 45 37 36 8 8 27 19 21 35 33 24
49 46 37 36 46 40 38 35 35 31 27 28 29 29 28 27 27 27 27 28 31 32 33 36 42 39 28 24 20 21 28 28 25 29 41 38 20 11 3 15 15 31 44 36 28
48 49 45 41 47 43 43 40 36 31 29 27 27 28 26 26 26 25 25 27 29 31 33 37 42 39 19 19 18 22 18 23 26 27 30 36 11 2 10 11 24 40 33 17 24
48 51 46 46 46 47 46 43 36 29 28 26 26 26 25 22 24 24 22 25 28 30 33 37 40 37 15 13 15 15 29 29 30 27 27 30 14 8 10 10 31 32 28 26 24
50 47 45 47 48 47 44 42 35 29 26 23 23 23 21 22 23 21 20 24 28 29 33 37 36 34 11 10 16 15 16 26 29 36 32 26 20 5 10 17 34 21 24 26 26
44 43 46 45 45 44 40 35 32 28 25 22 23 22 22 21 20 18 19 23 26 30 32 38 31 23 11 11 17 20 15 17 27 27 14 16 16 10 12 14 29 24 21 33 31
39 41 42 44 45 44 39 34 30 28 25 22 23 22 21 19 18 16 20 21 26 30 31 35 25 17 10 15 17 14 14 17 25 16 8 10 11 16 11 7 14 26 23 19 19
38 38 38 40 42 39 35 27 27 27 25 22 21 20 19 18 15 17 18 21 23 29 31 33 17 14 6 12 16 9 15 17 17 14 13 13 15 15 16 24 19 21 12 17 15
34 33 35 39 37 32 28 30 29 26 22 21 21 19 19 15 17 17 18 21 24 27 30 25 21 15 8 12 15 13 13 12 11 20 12 11 19 20 16 30 25 13 13 4 5